Laatste waarneming: 05:16
Temperatuur:10,0°C
Dauwpunt:7,2°C
Rel. vocht:83,0%
Natte-bol:8,9°C
Wind (gem. 10 min.):5,3 m/s
Wind (max. 10 min.):1.7E+308 m/s
Windrichting:45°
Neerslagsom:0,0 mm
Neerslagintensiteit:0,0 mm/u
Luchtdruk:1008,6 hPa
Straling:0,0 W/m2
 
Maximumtemp.:10,3°C (02:40)
Minimumtemp.:9,9°C (00:21)
Hoogste windstoot:9,4 m/s (02:25)


Bekijk de verwachting.

Bekijk de grafieken.
Bekijk het weekoverzicht.
Bekijk het maandoverzicht.
Bekijk het jaaroverzicht.
Dagtabel
Tijd Temp. Dauwp. Natte-bol Rel. Hum. Windsnelh. Windricht. Windstoot Neerslag Straling Luchtdruk
 
05:16 10,0 7,2 8,9 83,0 5,3 45 - 0,0 0 1.008,6
05:15 10,0 7,2 8,9 83,0 5,1 38 - 0,0 0 1.008,6
05:14 10,0 7,2 8,8 83,0 5,0 41 - 0,0 0 1.008,6
05:13 10,0 7,2 8,9 83,0 4,8 36 - 0,0 0 1.008,6
05:12 10,0 7,2 8,9 83,0 5,2 36 - 0,0 0 1.008,6
05:11 10,0 7,3 8,9 83,0 5,2 45 - 0,0 0 1.008,6
05:10 10,0 7,3 8,9 83,0 4,8 48 - 0,0 0 1.008,6
05:09 10,0 7,2 8,9 83,0 4,4 32 - 0,0 0 1.008,6
05:08 10,0 7,2 8,9 83,0 4,8 6 - 0,0 0 1.008,6
05:07 10,0 7,2 8,9 83,0 4,7 14 - 0,0 0 1.008,7
05:06 10,0 7,2 8,9 83,0 4,5 41 - 0,0 0 1.008,7
05:05 10,0 7,2 8,9 83,0 4,7 51 - 0,0 0 1.008,7
05:04 10,0 7,3 8,9 83,0 4,9 41 - 0,0 0 1.008,7
05:03 10,0 7,3 8,9 83,0 5,0 46 - 0,0 0 1.008,7
05:02 10,0 7,2 8,9 83,0 5,1 47 - 0,0 0 1.008,7
05:01 10,0 7,3 8,9 83,0 5,3 33 - 0,0 0 1.008,7
05:00 10,0 7,3 8,9 83,0 5,5 68 - 0,0 0 1.008,8
 
04:59 10,0 7,3 8,9 83,0 5,4 36 - 0,0 0 1.008,8
04:58 10,1 7,3 8,9 83,0 5,3 32 - 0,0 0 1.008,7
04:57 10,1 7,3 8,9 83,0 5,2 23 - 0,0 0 1.008,7
04:56 10,0 7,3 8,9 83,0 4,9 34 - 0,0 0 1.008,7
04:55 10,1 7,3 8,9 83,0 4,8 60 - 0,0 0 1.008,8
04:54 10,1 7,3 8,9 83,0 4,8 41 - 0,0 0 1.008,8
04:53 10,1 7,3 8,9 83,0 5,1 31 - 0,0 0 1.008,8
04:52 10,1 7,3 8,9 83,0 5,3 55 - 0,0 0 1.008,9
04:51 10,1 7,3 8,9 83,0 5,3 43 - 0,0 0 1.008,9
04:50 10,1 7,3 8,9 83,0 5,1 41 - 0,0 0 1.008,9
04:49 10,1 7,3 9,0 83,0 4,7 55 - 0,0 0 1.008,9
04:48 10,1 7,3 9,0 83,0 4,5 28 - 0,0 0 1.008,9
04:47 10,1 7,2 8,9 82,1 4,6 36 - 0,0 0 1.008,9
04:46 10,1 7,2 8,9 82,0 5,0 28 - 0,0 0 1.008,9
04:45 10,1 7,2 8,9 82,0 5,1 28 - 0,0 0 1.008,9
04:44 10,1 7,2 8,9 82,0 5,0 53 - 0,0 0 1.008,9
04:43 10,1 7,2 8,9 82,0 4,7 34 - 0,0 0 1.008,9
04:42 10,1 7,2 8,9 82,0 4,6 49 - 0,0 0 1.008,9
04:41 10,1 7,2 8,9 82,0 3,9 42 - 0,0 0 1.009,0
04:40 10,1 7,2 8,9 82,0 4,1 1 - 0,0 0 1.009,0
04:39 10,1 7,2 8,9 82,0 4,5 14 - 0,0 0 1.009,0
04:38 10,1 7,2 8,9 82,0 4,8 32 - 0,0 0 1.009,0
04:37 10,2 7,2 8,9 82,0 5,0 51 - 0,0 0 1.009,0
04:36 10,1 7,2 8,9 82,0 5,1 36 - 0,0 0 1.008,9
04:35 10,2 7,2 9,0 82,0 4,7 41 - 0,0 0 1.009,0
04:34 10,2 7,2 9,0 82,0 4,2 34 - 0,0 0 1.009,0
04:33 10,2 7,2 9,0 82,0 4,3 40 - 0,0 0 1.009,0
04:32 10,2 7,3 9,0 82,0 4,4 32 - 0,0 0 1.009,0
04:31 10,2 7,2 9,0 82,0 4,4 40 - 0,0 0 1.008,9
04:30 10,2 7,2 9,0 82,0 4,7 47 - 0,0 0 1.009,0
04:29 10,2 7,3 9,0 82,0 5,1 45 - 0,0 0 1.009,0
04:28 10,2 7,3 9,0 82,0 5,1 27 - 0,0 0 1.009,0
04:27 10,2 7,3 9,0 82,0 4,5 51 - 0,0 0 1.009,0
04:26 10,2 7,2 8,9 81,5 3,9 27 - 0,0 0 1.009,0
04:25 10,2 7,1 8,9 81,0 3,8 32 - 0,0 0 1.008,9
04:24 10,2 7,1 8,9 81,0 4,0 43 - 0,0 0 1.008,9
04:23 10,2 7,1 8,9 81,0 4,3 29 - 0,0 0 1.008,9
04:22 10,2 7,1 8,9 81,0 4,4 41 - 0,0 0 1.008,9
04:21 10,2 7,1 8,9 81,0 4,9 69 - 0,0 0 1.009,0
04:20 10,2 7,1 8,9 81,0 5,3 64 - 0,0 0 1.009,0
04:19 10,3 7,2 9,0 81,0 5,3 54 - 0,0 0 1.009,0
04:18 10,3 7,2 9,0 81,0 5,1 53 - 0,0 0 1.009,0
04:17 10,3 7,2 9,0 81,0 4,9 64 - 0,0 0 1.008,9
04:16 10,3 7,2 9,0 81,0 4,5 41 - 0,0 0 1.008,9
04:15 10,3 7,2 9,0 81,0 3,9 37 - 0,0 0 1.009,0
04:14 10,3 7,2 9,0 81,0 3,4 47 - 0,0 0 1.009,0
04:13 10,3 7,2 9,0 81,0 3,3 54 - 0,0 0 1.009,0
04:12 10,3 7,2 9,0 81,0 3,4 49 - 0,0 0 1.009,0
04:11 10,3 7,2 9,0 81,0 3,6 34 - 0,0 0 1.009,0
04:10 10,3 7,1 8,9 80,7 3,8 25 - 0,0 0 1.008,9
04:09 10,3 7,0 8,9 80,0 3,8 35 - 0,0 0 1.008,9
04:08 10,3 7,0 8,9 80,0 3,6 38 - 0,0 0 1.008,9
04:07 10,3 7,0 8,9 80,0 3,6 28 - 0,0 0 1.008,9
04:06 10,3 7,0 8,9 80,0 3,7 18 - 0,0 0 1.009,0
04:05 10,3 7,0 8,9 80,0 4,1 49 - 0,0 0 1.009,0
04:04 10,3 7,0 8,9 80,0 4,5 37 - 0,0 0 1.009,0
04:03 10,3 7,0 8,9 80,0 4,6 39 - 0,0 0 1.008,9
04:02 10,3 7,0 8,9 80,0 4,1 40 - 0,0 0 1.009,0
04:01 10,3 7,0 8,9 80,0 3,4 58 - 0,0 0 1.009,0
04:00 10,3 7,0 8,9 80,0 2,9 28 - 0,0 0 1.009,0
 
03:59 10,3 7,0 8,9 80,0 2,9 41 - 0,0 0 1.009,0
03:58 10,3 7,0 8,9 80,0 3,1 71 - 0,0 0 1.009,0
03:57 10,3 6,9 8,8 79,5 3,3 32 - 0,0 0 1.009,0
03:56 10,3 6,8 8,8 79,0 3,3 47 - 0,0 0 1.009,0
03:55 10,3 6,8 8,8 79,0 3,6 8 - 0,0 0 1.009,0
03:54 10,3 6,8 8,8 79,0 4,0 29 - 0,0 0 1.009,0
03:53 10,3 6,8 8,7 79,0 4,4 41 - 0,0 0 1.009,0
03:52 10,3 6,8 8,8 79,0 4,5 42 - 0,0 0 1.009,0
03:51 10,3 6,8 8,8 79,0 4,2 34 - 0,0 0 1.009,0
03:50 10,3 6,8 8,8 79,0 3,9 55 - 0,0 0 1.009,0
03:49 10,2 6,8 8,7 79,0 3,6 34 - 0,0 0 1.009,0
03:48 10,2 6,8 8,7 79,0 3,6 24 - 0,0 0 1.009,0
03:47 10,2 6,8 8,7 79,0 3,4 47 - 0,0 0 1.009,0
03:46 10,2 6,8 8,7 79,0 3,5 49 - 0,0 0 1.009,0
03:45 10,2 6,8 8,7 79,0 3,4 59 - 0,0 0 1.009,0
03:44 10,2 6,8 8,7 79,0 3,8 54 - 0,0 0 1.009,0
03:43 10,2 6,8 8,7 79,0 4,2 50 - 0,0 0 1.009,0
03:42 10,2 6,8 8,7 79,0 4,4 19 - 0,0 0 1.009,0
03:41 10,2 6,8 8,7 79,0 4,1 45 - 0,0 0 1.009,0
03:40 10,2 6,8 8,7 79,0 3,9 61 - 0,0 0 1.009,0
03:39 10,2 6,8 8,7 79,0 3,6 22 - 0,0 0 1.009,0
03:38 10,2 6,8 8,7 79,0 3,8 45 - 0,0 0 1.009,1
03:37 10,2 6,8 8,7 79,0 3,9 38 - 0,0 0 1.009,1
03:36 10,3 6,8 8,7 79,0 4,0 53 - 0,0 0 1.009,1
03:35 10,3 6,8 8,7 79,0 3,7 54 - 0,0 0 1.009,1
03:34 10,2 6,8 8,7 79,0 3,4 45 - 0,0 0 1.009,1
03:33 10,2 6,8 8,7 79,0 3,0 61 - 0,0 0 1.009,1
03:32 10,2 6,8 8,7 79,0 3,2 78 - 0,0 0 1.009,1
03:31 10,2 6,8 8,7 79,0 3,2 32 - 0,0 0 1.009,1
03:30 10,2 6,8 8,7 79,0 3,5 25 - 0,0 0 1.009,1
03:29 10,2 6,8 8,7 79,0 3,6 23 - 0,0 0 1.009,1
03:28 10,2 6,8 8,7 79,0 4,2 57 - 0,0 0 1.009,1
03:27 10,2 6,8 8,7 79,0 4,8 41 - 0,0 0 1.009,1
03:26 10,2 6,8 8,7 79,0 5,1 48 - 0,0 0 1.009,1
03:25 10,2 6,8 8,7 79,0 4,8 59 - 0,0 0 1.009,1
03:24 10,2 6,8 8,7 79,0 4,4 46 - 0,0 0 1.009,2
03:23 10,2 6,8 8,7 79,0 4,6 36 - 0,0 0 1.009,1
03:22 10,2 6,8 8,7 79,0 5,2 32 - 0,0 0 1.009,2
03:21 10,2 6,8 8,7 79,0 5,3 57 - 0,0 0 1.009,2
03:20 10,2 6,8 8,7 79,0 4,5 66 - 0,0 0 1.009,2
03:19 10,3 6,8 8,7 79,0 3,5 59 - 0,0 0 1.009,1
03:18 10,2 6,8 8,7 79,0 3,6 37 - 0,0 0 1.009,1
03:17 10,2 6,8 8,7 79,0 4,1 74 - 0,0 0 1.009,1
03:16 10,3 6,8 8,8 79,0 4,6 20 - 0,0 0 1.009,2
03:15 10,3 6,8 8,8 79,0 4,8 65 - 0,0 0 1.009,2
03:14 10,3 6,8 8,8 79,0 5,0 41 - 0,0 0 1.009,2
03:13 10,3 6,8 8,8 79,0 4,8 57 - 0,0 0 1.009,2
03:12 10,3 6,8 8,8 79,0 4,6 34 - 0,0 0 1.009,2
03:11 10,3 6,8 8,8 79,0 4,2 34 - 0,0 0 1.009,2
03:10 10,3 6,8 8,8 79,0 4,0 49 - 0,0 0 1.009,2
03:09 10,3 6,8 8,8 79,0 4,1 26 - 0,0 0 1.009,2
03:08 10,3 6,8 8,8 79,0 4,4 40 - 0,0 0 1.009,2
03:07 10,3 6,8 8,8 79,0 4,6 70 - 0,0 0 1.009,2
03:06 10,3 6,8 8,8 79,0 4,4 55 - 0,0 0 1.009,2
03:05 10,3 6,8 8,8 79,0 4,6 22 - 0,0 0 1.009,2
03:04 10,3 6,8 8,8 79,0 4,9 37 - 0,0 0 1.009,3
03:03 10,3 6,8 8,8 79,0 4,8 47 - 0,0 0 1.009,3
03:02 10,3 6,8 8,8 79,0 4,7 33 - 0,0 0 1.009,3
03:01 10,3 6,8 8,8 79,0 4,9 45 - 0,0 0 1.009,3
03:00 10,3 6,8 8,8 79,0 4,8 37 - 0,0 0 1.009,3
 
02:59 10,3 6,8 8,8 79,0 4,7 32 - 0,0 0 1.009,3
02:58 10,3 6,8 8,8 79,0 4,8 32 - 0,0 0 1.009,3
02:57 10,3 6,8 8,8 79,0 5,3 57 - 0,0 0 1.009,3
02:56 10,3 6,8 8,8 79,0 5,5 30 - 0,0 0 1.009,3
02:55 10,3 6,8 8,8 79,0 5,6 40 - 0,0 0 1.009,4
02:54 10,3 6,8 8,8 79,0 5,2 47 - 0,0 0 1.009,4
02:53 10,3 6,8 8,8 79,0 4,7 34 - 0,0 0 1.009,4
02:52 10,3 6,8 8,8 79,0 4,5 66 - 0,0 0 1.009,4
02:51 10,3 6,8 8,8 79,0 4,6 56 - 0,0 0 1.009,5
02:50 10,3 6,8 8,8 79,0 4,3 73 - 0,0 0 1.009,5
02:49 10,3 6,8 8,8 78,9 3,9 32 - 0,0 0 1.009,5
02:48 10,3 6,6 8,7 78,0 3,8 34 - 0,0 0 1.009,5
02:47 10,3 6,6 8,7 78,0 3,9 68 - 0,0 0 1.009,5
02:46 10,3 6,6 8,7 78,0 4,4 59 - 0,0 0 1.009,5
02:45 10,3 6,7 8,7 78,0 4,3 82 - 0,0 0 1.009,5
02:44 10,3 6,7 8,7 78,0 3,6 43 - 0,0 0 1.009,5
02:43 10,3 6,6 8,7 78,0 3,5 26 - 0,0 0 1.009,5
02:42 10,3 6,7 8,7 78,0 3,4 46 - 0,0 0 1.009,5
02:41 10,3 6,7 8,7 78,0 3,7 60 - 0,0 0 1.009,5
02:40 10,3 6,7 8,7 78,0 4,1 50 - 0,0 0 1.009,5
02:39 10,3 6,7 8,7 78,0 4,5 53 - 0,0 0 1.009,5
02:38 10,3 6,7 8,7 78,0 4,8 43 - 0,0 0 1.009,5
02:37 10,3 6,6 8,7 78,0 4,9 30 - 0,0 0 1.009,6
02:36 10,3 6,6 8,7 78,0 5,1 61 - 0,0 0 1.009,6
02:35 10,3 6,6 8,7 78,0 5,5 39 - 0,0 0 1.009,6
02:34 10,3 6,6 8,7 78,0 5,9 39 - 0,0 0 1.009,6
02:33 10,3 6,6 8,7 78,0 6,0 55 - 0,0 0 1.009,6
02:32 10,3 6,6 8,7 78,0 5,9 32 - 0,0 0 1.009,6
02:31 10,3 6,6 8,7 78,0 5,7 25 - 0,0 0 1.009,6
02:30 10,3 6,6 8,7 78,0 5,2 40 - 0,0 0 1.009,6
02:29 10,3 6,6 8,7 78,0 4,8 36 - 0,0 0 1.009,6
02:28 10,3 6,6 8,7 78,0 4,2 28 - 0,0 0 1.009,6
02:27 10,3 6,6 8,7 78,0 4,3 51 - 0,0 0 1.009,6
02:26 10,3 6,6 8,7 78,0 5,2 23 - 0,0 0 1.009,5
02:25 10,3 6,6 8,7 78,0 5,9 43 - 0,0 0 1.009,5
02:24 10,3 6,6 8,7 78,0 5,9 39 - 0,0 0 1.009,6
02:23 10,3 6,6 8,7 78,0 5,2 65 - 0,0 0 1.009,6
02:22 10,3 6,6 8,7 78,0 4,8 11 - 0,0 0 1.009,6
02:21 10,3 6,6 8,7 78,0 4,7 56 - 0,0 0 1.009,6
02:20 10,3 6,6 8,7 78,0 4,7 63 - 0,0 0 1.009,6
02:19 10,3 6,6 8,7 78,0 4,1 24 - 0,0 0 1.009,6
02:18 10,3 6,6 8,7 78,0 3,8 79 - 0,0 0 1.009,6
02:17 10,3 6,6 8,7 78,0 3,9 33 - 0,0 0 1.009,6
02:16 10,3 6,6 8,7 78,0 4,2 30 - 0,0 0 1.009,7
02:15 10,3 6,6 8,7 78,0 4,6 33 - 0,0 0 1.009,7
02:14 10,3 6,6 8,7 78,0 5,2 31 - 0,0 0 1.009,6
02:13 10,3 6,6 8,7 78,0 5,3 53 - 0,0 0 1.009,6
02:12 10,3 6,6 8,7 78,0 4,9 57 - 0,0 0 1.009,7
02:11 10,3 6,6 8,7 78,0 4,4 43 - 0,0 0 1.009,7
02:10 10,3 6,6 8,7 78,0 4,6 15 - 0,0 0 1.009,7
02:09 10,3 6,6 8,7 78,0 4,5 40 - 0,0 0 1.009,7
02:08 10,3 6,6 8,7 78,0 4,5 72 - 0,0 0 1.009,7
02:07 10,3 6,6 8,7 78,0 4,5 50 - 0,0 0 1.009,7
02:06 10,3 6,6 8,7 78,0 4,7 82 - 0,0 0 1.009,7
02:05 10,3 6,6 8,7 78,0 5,0 24 9,4 0,0 0 1.009,7
02:04 10,3 6,6 8,6 78,0 5,1 32 - 0,0 0 1.009,7
02:03 10,2 6,6 8,6 78,0 4,8 33 - 0,0 0 1.009,7
02:02 10,3 6,6 8,7 78,0 4,8 41 - 0,0 0 1.009,7
02:01 10,3 6,6 8,7 78,0 4,9 70 - 0,0 0 1.009,7
02:00 10,3 6,6 8,7 78,0 4,8 56 - 0,0 0 1.009,8
 
01:59 10,3 6,6 8,7 78,0 4,8 38 - 0,0 0 1.009,8
01:58 10,3 6,8 8,7 78,8 4,9 59 - 0,0 0 1.009,8
01:57 10,3 6,8 8,8 79,0 5,2 66 - 0,0 0 1.009,7
01:56 10,3 6,8 8,8 79,0 5,3 50 - 0,0 0 1.009,8
01:55 10,3 6,8 8,8 79,0 5,0 36 - 0,0 0 1.009,8
01:54 10,3 6,8 8,8 79,0 4,3 17 - 0,0 0 1.009,9
01:53 10,3 6,8 8,8 79,0 4,3 59 - 0,0 0 1.009,9
01:52 10,3 6,8 8,8 79,0 4,5 49 - 0,0 0 1.009,9
01:51 10,3 6,8 8,8 79,0 4,0 23 - 0,0 0 1.009,9
01:50 10,3 6,8 8,8 79,0 3,6 43 - 0,0 0 1.009,9
01:49 10,2 6,8 8,7 79,0 4,1 37 - 0,0 0 1.009,9
01:48 10,2 6,8 8,7 79,0 4,5 33 - 0,0 0 1.009,9
01:47 10,2 6,8 8,7 79,0 4,5 44 - 0,0 0 1.009,9
01:46 10,2 6,8 8,7 79,0 4,6 39 - 0,0 0 1.009,9
01:45 10,2 6,8 8,7 79,0 4,9 47 - 0,0 0 1.009,9
01:44 10,2 6,8 8,7 79,0 4,7 20 - 0,0 0 1.010,0
01:43 10,2 6,8 8,7 79,0 4,3 43 - 0,0 0 1.010,0
01:42 10,3 6,8 8,8 79,0 4,2 0 - 0,0 0 1.010,0
01:41 10,2 6,8 8,7 79,0 4,3 41 - 0,0 0 1.010,0
01:40 10,2 6,8 8,7 79,0 4,8 51 - 0,0 0 1.010,0
01:39 10,3 6,8 8,8 79,0 5,0 59 - 0,0 0 1.010,0
01:38 10,3 6,8 8,8 79,0 4,7 22 - 0,0 0 1.010,1
01:37 10,3 6,8 8,8 79,0 4,0 46 - 0,0 0 1.010,0
01:36 10,3 6,8 8,8 79,0 3,3 17 - 0,0 0 1.010,1
01:35 10,2 6,8 8,7 79,0 3,5 45 - 0,0 0 1.010,1
01:34 10,2 6,8 8,7 79,0 4,1 38 - 0,0 0 1.010,0
01:33 10,2 6,8 8,7 79,0 4,3 29 - 0,0 0 1.010,0
01:32 10,2 6,8 8,7 79,0 4,0 50 - 0,0 0 1.010,0
01:31 10,2 6,8 8,7 79,0 4,1 26 - 0,0 0 1.010,0
01:30 10,2 6,8 8,7 79,0 4,3 37 - 0,0 0 1.010,0
01:29 10,2 6,8 8,7 79,0 4,4 24 - 0,0 0 1.010,0
01:28 10,2 6,8 8,7 79,0 4,5 32 - 0,0 0 1.010,0
01:27 10,2 6,8 8,7 79,0 4,3 36 - 0,0 0 1.010,1
01:26 10,2 6,8 8,7 79,0 4,1 36 - 0,0 0 1.010,1
01:25 10,2 6,8 8,7 79,0 4,0 45 - 0,0 0 1.010,1
01:24 10,2 6,7 8,7 79,0 4,3 20 - 0,0 0 1.010,1
01:23 10,2 6,8 8,7 79,0 4,5 32 - 0,0 0 1.010,1
01:22 10,2 6,8 8,7 79,0 4,7 49 - 0,0 0 1.010,1
01:21 10,2 6,7 8,7 79,0 4,4 42 - 0,0 0 1.010,1
01:20 10,2 6,7 8,7 79,0 4,2 45 - 0,0 0 1.010,1
01:19 10,2 6,7 8,7 79,0 4,1 26 - 0,0 0 1.010,1
01:18 10,2 6,7 8,7 79,0 4,2 40 - 0,0 0 1.010,1
01:17 10,2 6,7 8,7 79,0 4,1 54 - 0,0 0 1.010,1
01:16 10,2 6,7 8,7 79,0 4,3 30 - 0,0 0 1.010,1
01:15 10,2 6,7 8,7 79,0 4,7 44 - 0,0 0 1.010,1
01:14 10,2 6,7 8,7 79,0 5,1 53 - 0,0 0 1.010,2
01:13 10,2 6,8 8,7 79,5 4,8 42 - 0,0 0 1.010,1
01:12 10,2 6,9 8,8 80,0 4,6 345 - 0,0 0 1.010,1
01:11 10,2 6,9 8,8 80,0 4,2 44 - 0,0 0 1.010,1
01:10 10,2 6,9 8,8 80,0 4,1 21 - 0,0 0 1.010,1
01:09 10,2 6,9 8,8 80,0 4,0 26 - 0,0 0 1.010,1
01:08 10,2 6,9 8,8 80,0 3,5 32 - 0,0 0 1.010,1
01:07 10,2 6,9 8,8 80,0 2,9 39 - 0,0 0 1.010,2
01:06 10,2 6,9 8,8 80,0 3,0 36 - 0,0 0 1.010,2
01:05 10,2 6,9 8,8 80,0 3,8 40 - 0,0 0 1.010,2
01:04 10,2 6,9 8,7 80,0 4,2 50 - 0,0 0 1.010,2
01:03 10,1 6,9 8,7 80,0 4,3 30 - 0,0 0 1.010,2
01:02 10,1 6,8 8,7 80,0 4,3 31 - 0,0 0 1.010,2
01:01 10,1 6,8 8,7 80,0 4,2 57 - 0,0 0 1.010,2
01:00 10,1 6,8 8,7 80,0 4,1 32 - 0,0 0 1.010,2
 
00:59 10,1 6,8 8,7 80,0 4,4 22 - 0,0 0 1.010,2
00:58 10,1 6,8 8,7 80,0 4,7 59 - 0,0 0 1.010,2
00:57 10,1 6,8 8,7 80,0 4,4 30 - 0,0 0 1.010,2
00:56 10,1 6,8 8,7 80,0 4,0 64 - 0,0 0 1.010,2
00:55 10,1 6,8 8,7 80,0 4,0 70 - 0,0 0 1.010,2
00:54 10,1 6,8 8,7 80,0 4,0 54 - 0,0 0 1.010,2
00:53 10,1 6,8 8,7 80,0 4,2 20 - 0,0 0 1.010,2
00:52 10,1 6,8 8,7 80,0 4,4 44 - 0,0 0 1.010,2
00:51 10,1 6,8 8,7 80,0 4,5 22 - 0,0 0 1.010,2
00:50 10,1 6,8 8,7 80,0 4,5 57 - 0,0 0 1.010,2
00:49 10,1 6,8 8,7 80,0 4,6 37 - 0,0 0 1.010,2
00:48 10,1 6,8 8,7 80,0 4,9 20 - 0,0 0 1.010,2
00:47 10,1 6,8 8,7 80,0 5,3 31 - 0,0 0 1.010,2
00:46 10,1 6,8 8,7 80,0 5,2 46 - 0,0 0 1.010,3
00:45 10,1 6,8 8,7 80,0 4,4 46 - 0,0 0 1.010,3
00:44 10,1 6,8 8,7 80,0 4,2 45 - 0,0 0 1.010,3
00:43 10,1 6,8 8,7 80,0 4,5 57 - 0,0 0 1.010,3
00:42 10,0 6,8 8,6 80,0 4,4 37 - 0,0 0 1.010,4
00:41 10,1 6,8 8,7 80,0 4,0 64 - 0,0 0 1.010,3
00:40 10,1 6,8 8,7 80,0 4,2 59 - 0,0 0 1.010,3
00:39 10,1 6,8 8,7 80,0 4,8 49 - 0,0 0 1.010,3
00:38 10,1 6,8 8,7 80,0 5,1 40 - 0,0 0 1.010,3
00:37 10,1 6,8 8,7 80,0 4,6 42 - 0,0 0 1.010,3
00:36 10,1 6,8 8,7 80,0 4,1 68 - 0,0 0 1.010,3
00:35 10,0 6,8 8,6 80,0 4,6 72 - 0,0 0 1.010,4
00:34 10,1 6,8 8,7 80,0 5,1 59 - 0,0 0 1.010,3
00:33 10,1 6,8 8,6 80,0 5,4 32 - 0,0 0 1.010,3
00:32 10,0 6,8 8,6 80,0 5,4 50 - 0,0 0 1.010,3
00:31 10,0 6,8 8,6 80,0 5,6 34 - 0,0 0 1.010,4
00:30 10,0 6,8 8,6 80,0 5,5 60 - 0,0 0 1.010,5
00:29 10,1 6,8 8,6 80,0 5,1 59 - 0,0 0 1.010,6
00:28 10,0 6,8 8,6 80,0 4,4 39 - 0,0 0 1.010,5
00:27 10,0 6,8 8,6 80,0 3,9 36 - 0,0 0 1.010,5
00:26 10,0 6,8 8,6 80,0 3,9 30 - 0,0 0 1.010,5
00:25 10,0 6,7 8,6 80,0 4,2 41 - 0,0 0 1.010,4
00:24 10,0 6,7 8,6 80,0 4,3 42 - 0,0 0 1.010,5
00:23 10,0 6,7 8,6 80,0 4,7 76 - 0,0 0 1.010,5
00:22 10,0 6,7 8,5 80,0 5,1 51 - 0,0 0 1.010,6
00:21 9,9 6,7 8,5 80,0 5,5 32 - 0,0 0 1.010,6
00:20 10,0 6,7 8,6 80,0 5,2 49 - 0,0 0 1.010,6
00:19 10,0 6,7 8,6 80,0 4,9 55 - 0,0 0 1.010,6
00:18 10,0 6,7 8,6 80,0 4,6 46 - 0,0 0 1.010,6
00:17 10,0 6,7 8,6 80,0 4,2 45 - 0,0 0 1.010,6
00:16 10,0 6,7 8,6 80,0 4,0 87 - 0,0 0 1.010,5
00:15 10,0 6,7 8,6 80,0 4,2 44 - 0,0 0 1.010,6
00:14 10,0 6,7 8,6 80,0 5,0 53 - 0,0 0 1.010,6
00:13 10,1 6,8 8,7 80,0 5,5 53 - 0,0 0 1.010,7
00:12 10,1 6,8 8,7 80,0 5,2 45 - 0,0 0 1.010,7
00:11 10,1 6,8 8,7 80,0 4,8 45 - 0,0 0 1.010,5
00:10 10,1 6,8 8,7 80,0 4,5 37 - 0,0 0 1.010,6
00:09 10,1 6,8 8,7 80,0 4,5 37 - 0,0 0 1.010,6
00:08 10,1 6,8 8,7 80,0 4,6 47 - 0,0 0 1.010,7
00:07 10,1 6,8 8,7 80,0 4,9 35 - 0,0 0 1.010,7
00:06 10,1 6,8 8,7 80,0 5,1 56 - 0,0 0 1.010,7
00:05 10,1 6,8 8,7 80,0 4,8 41 - 0,0 0 1.010,7
00:04 10,1 6,8 8,7 80,0 4,3 30 - 0,0 0 1.010,6
00:03 10,1 6,8 8,7 80,0 4,2 22 - 0,0 0 1.010,7
00:02 10,1 6,7 8,6 79,4 4,6 41 - 0,0 0 1.010,7
00:01 10,1 6,6 8,6 79,0 4,8 48 - 0,0 0 1.010,7
00:00 10,1 6,6 8,6 79,0 4,4 26 - 0,0 0 1.010,7
 
23:59 10,1 6,6 8,6 79,0 4,1 27 - 0,0 0 1.010,7
23:58 10,1 6,6 8,6 79,0 4,5 51 - 0,0 0 1.010,8
23:57 10,1 6,7 8,6 79,0 4,8 48 - 0,0 0 1.010,8
23:56 10,1 6,7 8,6 79,0 4,2 62 - 0,0 0 1.010,8
23:55 10,1 6,7 8,6 79,0 3,7 69 - 0,0 0 1.010,7
23:54 10,2 6,7 8,7 79,0 4,0 39 - 0,0 0 1.010,8
23:53 10,2 6,7 8,7 79,0 4,8 44 - 0,0 0 1.010,8
23:52 10,2 6,7 8,7 79,0 4,9 46 - 0,0 0 1.010,8
23:51 10,2 6,7 8,7 79,0 4,9 59 - 0,0 0 1.010,8
23:50 10,2 6,7 8,7 79,0 4,9 45 - 0,0 0 1.010,7
23:49 10,2 6,7 8,7 79,0 4,8 53 - 0,0 0 1.010,7
23:48 10,2 6,7 8,7 79,0 4,5 35 - 0,0 0 1.010,7
23:47 10,2 6,8 8,7 79,0 4,6 61 - 0,0 0 1.010,8
23:46 10,2 6,8 8,7 79,0 4,9 51 - 0,0 0 1.010,8
23:45 10,2 6,8 8,7 79,0 5,1 57 - 0,0 0 1.010,8
23:44 10,3 6,8 8,8 79,0 5,0 50 - 0,0 0 1.010,8
23:43 10,3 6,8 8,8 79,0 4,9 43 - 0,0 0 1.010,8
23:42 10,3 6,8 8,8 79,0 4,9 29 - 0,0 0 1.010,9
23:41 10,3 6,8 8,8 79,0 4,7 44 - 0,0 0 1.010,8
23:40 10,3 6,8 8,8 79,0 4,2 51 - 0,0 0 1.010,8
23:39 10,3 6,8 8,8 79,0 3,4 37 - 0,0 0 1.010,8
23:38 10,3 6,8 8,8 79,0 3,1 51 - 0,0 0 1.010,8
23:37 10,3 6,9 8,8 79,0 3,4 45 - 0,0 0 1.010,8
23:36 10,3 6,9 8,8 79,0 3,8 41 - 0,0 0 1.010,8
23:35 10,3 6,9 8,8 79,0 4,2 30 - 0,0 0 1.010,7
23:34 10,3 6,9 8,8 79,0 4,1 36 - 0,0 0 1.010,8
23:33 10,3 6,9 8,8 79,0 3,8 45 - 0,0 0 1.010,8
23:32 10,3 6,9 8,8 79,0 3,7 44 - 0,0 0 1.010,8
23:31 10,3 6,9 8,8 79,0 3,8 57 - 0,0 0 1.010,8
23:30 10,3 6,9 8,8 79,0 3,5 51 - 0,0 0 1.010,8
23:29 10,3 6,9 8,8 79,0 3,5 40 - 0,0 0 1.010,7
23:28 10,3 6,8 8,7 78,6 4,2 41 - 0,0 0 1.010,8
23:27 10,3 6,7 8,7 78,0 4,6 30 - 0,0 0 1.010,8
23:26 10,3 6,7 8,7 78,0 4,5 41 - 0,0 0 1.010,8
23:25 10,3 6,7 8,7 78,0 4,5 54 - 0,0 0 1.010,9
23:24 10,3 6,7 8,7 78,0 4,8 64 - 0,0 0 1.010,9
23:23 10,3 6,7 8,7 78,0 4,8 61 - 0,0 0 1.010,9
23:22 10,4 6,7 8,8 78,0 5,2 57 - 0,0 0 1.010,9
23:21 10,4 6,7 8,8 78,0 5,1 66 - 0,0 0 1.010,9
23:20 10,4 6,7 8,8 78,0 5,1 28 - 0,0 0 1.010,9
23:19 10,4 6,7 8,8 78,0 4,8 37 - 0,0 0 1.010,8
23:18 10,4 6,8 8,8 78,0 4,3 13 - 0,0 0 1.010,8
23:17 10,4 6,8 8,8 78,0 3,9 38 - 0,0 0 1.010,8
23:16 10,4 6,7 8,8 78,0 4,0 28 - 0,0 0 1.010,8
23:15 10,4 6,8 8,8 78,0 4,2 54 - 0,0 0 1.010,8
23:14 10,4 6,8 8,8 78,0 4,9 59 - 0,0 0 1.010,8
23:13 10,4 6,8 8,8 78,0 5,2 44 - 0,0 0 1.010,8
23:12 10,4 6,8 8,8 78,0 4,9 36 - 0,0 0 1.010,8
23:11 10,4 6,8 8,8 78,0 4,2 30 - 0,0 0 1.010,9
23:10 10,4 6,8 8,8 78,0 4,0 60 - 0,0 0 1.010,8
23:09 10,4 6,8 8,8 78,0 4,1 65 - 0,0 0 1.010,8
23:08 10,4 6,8 8,8 78,0 4,2 36 - 0,0 0 1.010,8
23:07 10,4 6,8 8,8 78,0 4,4 54 - 0,0 0 1.010,9
23:06 10,4 6,8 8,8 78,0 4,4 28 - 0,0 0 1.010,8
23:05 10,4 6,8 8,8 78,0 4,3 71 - 0,0 0 1.010,8
23:04 10,4 6,8 8,8 78,0 4,2 21 - 0,0 0 1.010,8
23:03 10,5 6,8 8,8 78,0 3,8 40 - 0,0 0 1.010,8
23:02 10,5 6,8 8,8 78,0 3,9 48 - 0,0 0 1.010,8
23:01 10,4 6,8 8,8 77,9 4,4 53 - 0,0 0 1.010,9
23:00 10,4 6,6 8,7 77,0 4,7 57 - 0,0 0 1.010,9
 
22:59 10,4 6,6 8,7 77,0 4,8 25 - 0,0 0 1.010,9
22:58 10,5 6,6 8,7 77,0 5,3 25 - 0,0 0 1.011,0
22:57 10,5 6,7 8,8 77,0 5,1 47 - 0,0 0 1.011,1
22:56 10,5 6,7 8,8 77,0 4,7 38 - 0,0 0 1.010,9
22:55 10,5 6,7 8,8 77,0 4,4 34 - 0,0 0 1.010,9
22:54 10,5 6,7 8,8 77,0 4,5 38 - 0,0 0 1.010,9
22:53 10,5 6,7 8,8 77,0 4,6 20 - 0,0 0 1.011,0
22:52 10,5 6,6 8,8 76,5 4,6 9 - 0,0 0 1.011,0
22:51 10,5 6,5 8,7 76,0 4,5 53 - 0,0 0 1.011,1
22:50 10,6 6,5 8,7 76,0 4,4 55 - 0,0 0 1.011,0
22:49 10,6 6,5 8,7 76,0 4,2 36 - 0,0 0 1.011,0
22:48 10,6 6,5 8,7 76,0 4,5 55 - 0,0 0 1.011,0
22:47 10,6 6,5 8,7 76,0 4,8 43 - 0,0 0 1.011,0
22:46 10,6 6,5 8,7 76,0 4,7 49 - 0,0 0 1.011,0
22:45 10,6 6,5 8,7 76,0 4,8 20 - 0,0 0 1.011,0
22:44 10,6 6,6 8,8 76,0 5,1 34 - 0,0 0 1.011,1
22:43 10,6 6,6 8,8 76,0 5,6 48 - 0,0 0 1.011,1
22:42 10,6 6,6 8,8 76,0 5,5 26 - 0,0 0 1.011,1
22:41 10,6 6,6 8,8 76,0 4,7 37 - 0,0 0 1.011,0
22:40 10,6 6,6 8,8 76,0 3,6 55 - 0,0 0 1.010,9
22:39 10,6 6,6 8,8 76,0 3,5 48 - 0,0 0 1.011,0
22:38 10,6 6,5 8,8 76,0 3,9 51 - 0,0 0 1.011,0
22:37 10,6 6,4 8,7 75,0 4,2 30 - 0,0 0 1.011,1
22:36 10,5 6,3 8,6 75,0 4,3 11 - 0,0 0 1.011,1
22:35 10,6 6,4 8,6 75,0 4,5 48 - 0,0 0 1.011,1
22:34 10,6 6,4 8,6 75,0 4,4 56 - 0,0 0 1.011,1
22:33 10,6 6,4 8,6 75,0 4,2 13 - 0,0 0 1.011,1
22:32 10,6 6,4 8,7 75,0 4,0 60 - 0,0 0 1.011,1
22:31 10,6 6,3 8,6 74,8 4,2 92 - 0,0 0 1.011,1
22:30 10,6 6,2 8,6 74,0 4,2 15 - 0,0 0 1.011,1
22:29 10,6 6,2 8,6 74,0 4,8 82 - 0,0 0 1.011,2
22:28 10,6 6,2 8,6 74,0 5,1 45 - 0,0 0 1.011,1
22:27 10,7 6,3 8,7 74,0 4,7 80 - 0,0 0 1.011,1
22:26 10,7 6,3 8,7 74,0 4,3 67 - 0,0 0 1.011,1
22:25 10,7 6,3 8,7 74,0 4,2 54 - 0,0 0 1.011,1
22:24 10,7 6,3 8,7 74,0 4,4 51 - 0,0 0 1.011,0
22:23 10,7 6,3 8,7 74,0 4,3 40 - 0,0 0 1.011,1
22:22 10,7 6,2 8,6 73,4 4,7 76 - 0,0 0 1.011,2
22:21 10,8 6,2 8,6 73,0 4,7 66 - 0,0 0 1.011,1
22:20 10,8 6,2 8,7 73,0 4,5 47 - 0,0 0 1.011,1
22:19 10,8 6,2 8,7 73,0 4,4 34 - 0,0 0 1.011,0
22:18 10,8 6,2 8,7 73,0 4,4 41 - 0,0 0 1.011,0
22:17 10,8 6,2 8,7 73,0 3,8 82 - 0,0 0 1.011,0
22:16 10,8 6,0 8,6 72,3 3,4 22 - 0,0 0 1.011,0
22:15 10,8 6,2 8,6 72,9 3,6 42 - 0,0 0 1.011,0
22:14 10,8 6,0 8,6 72,1 3,9 48 - 0,0 0 1.011,0
22:13 10,8 6,0 8,6 72,0 3,9 66 - 0,0 0 1.011,0
22:12 10,8 6,0 8,6 72,0 3,7 43 - 0,0 0 1.011,0
22:11 10,8 6,0 8,6 72,0 3,6 34 - 0,0 0 1.011,0
22:10 10,8 6,0 8,6 72,0 3,7 39 - 0,0 0 1.011,0
22:09 10,8 5,8 8,5 71,2 3,8 37 - 0,0 0 1.011,0
22:08 10,8 5,8 8,4 71,0 3,6 55 - 0,0 0 1.011,0
22:07 10,8 5,8 8,5 71,0 3,4 42 - 0,0 0 1.011,0
22:06 10,8 5,8 8,5 71,0 3,9 50 - 0,0 0 1.011,0
22:05 10,8 5,7 8,4 70,4 4,5 48 - 0,0 0 1.011,1
22:04 10,8 5,6 8,4 70,0 4,7 45 - 0,0 0 1.011,0
22:03 10,8 5,6 8,4 70,0 4,6 34 - 0,0 0 1.011,0
22:02 10,8 5,6 8,4 70,0 4,6 47 - 0,0 0 1.011,0
22:01 10,8 5,6 8,4 70,3 4,6 41 - 0,0 0 1.011,0
22:00 10,8 5,7 8,4 70,6 4,5 61 - 0,0 0 1.011,0
 
21:59 10,8 5,6 8,4 70,0 4,1 57 - 0,0 0 1.011,0
21:58 10,8 5,6 8,4 70,0 4,1 9 - 0,0 0 1.011,0
21:57 10,8 5,6 8,4 70,0 4,0 43 - 0,0 0 1.010,9
21:56 10,8 5,6 8,4 70,0 4,1 26 - 0,0 0 1.010,9
21:55 10,8 5,6 8,4 70,0 4,1 32 - 0,0 0 1.011,0
21:54 10,8 5,7 8,5 70,5 3,9 78 - 0,0 0 1.011,0
21:53 10,8 5,8 8,5 71,0 3,2 27 - 0,0 0 1.010,9
21:52 10,8 5,8 8,5 71,0 3,3 36 - 0,0 0 1.010,9
21:51 10,8 5,6 8,4 70,1 3,7 32 - 0,0 0 1.010,8
21:50 10,8 5,6 8,3 70,0 3,8 45 - 0,0 0 1.010,8
21:49 10,7 5,6 8,3 70,0 3,6 46 - 0,0 0 1.010,9
21:48 10,7 5,5 8,3 70,0 3,0 39 - 0,0 0 1.010,8
21:47 10,7 5,5 8,3 70,0 2,7 103 - 0,0 0 1.010,8
21:46 10,8 5,6 8,3 70,0 2,4 28 - 0,0 0 1.010,8
21:45 10,8 5,6 8,3 70,0 2,5 65 - 0,0 0 1.010,8
21:44 10,8 5,6 8,4 70,0 2,8 57 - 0,0 0 1.010,9
21:43 10,8 5,6 8,4 70,0 3,2 50 - 0,0 0 1.010,9
21:42 10,8 5,6 8,4 70,0 3,4 78 - 0,0 0 1.010,8
21:41 10,8 5,6 8,4 70,0 3,8 35 - 0,0 0 1.010,8
21:40 10,8 5,6 8,4 70,0 4,2 51 - 0,0 0 1.010,8
21:39 10,8 5,6 8,4 70,0 3,8 34 - 0,0 0 1.010,8
21:38 10,8 5,6 8,4 70,0 3,6 29 - 0,0 0 1.010,8
21:37 10,8 5,6 8,4 69,6 3,8 47 - 0,0 0 1.010,8
21:36 10,9 5,6 8,4 69,6 4,2 45 - 0,0 0 1.010,8
21:35 10,9 5,7 8,5 70,0 4,2 62 - 0,0 0 1.010,8
21:34 10,9 5,7 8,5 70,0 3,8 76 - 0,0 0 1.010,7
21:33 10,9 5,7 8,5 70,0 3,6 25 - 0,0 0 1.010,7
21:32 10,9 5,7 8,5 70,0 4,2 25 - 0,0 0 1.010,7
21:31 10,9 5,7 8,5 70,0 4,5 36 - 0,0 0 1.010,6
21:30 11,0 5,8 8,6 70,0 4,2 25 - 0,0 0 1.010,7
21:29 11,0 5,8 8,6 70,0 3,7 70 - 0,0 0 1.010,7
21:28 11,0 5,8 8,6 70,0 3,2 45 - 0,0 0 1.010,6
21:27 11,1 5,9 8,6 70,0 3,3 32 - 0,0 0 1.010,6
21:26 11,1 5,9 8,6 70,0 3,8 47 - 0,0 0 1.010,6
21:25 11,1 5,9 8,7 70,0 4,4 28 - 0,0 0 1.010,6
21:24 11,1 5,9 8,7 70,0 4,2 30 - 0,0 0 1.010,6
21:23 11,1 5,9 8,7 70,0 4,0 47 - 0,0 0 1.010,6
21:22 11,1 5,9 8,7 70,0 4,1 33 - 0,0 0 1.010,7
21:21 11,2 6,0 8,7 70,0 4,7 10 - 0,0 0 1.010,6
21:20 11,2 6,0 8,7 70,0 5,1 355 - 0,0 0 1.010,6
21:19 11,2 6,0 8,7 70,0 5,1 37 - 0,0 0 1.010,6
21:18 11,2 6,0 8,7 70,0 4,9 34 - 0,0 0 1.010,6
21:17 11,2 6,0 8,7 70,0 4,8 50 - 0,0 0 1.010,7
21:16 11,2 6,0 8,7 70,0 4,7 49 - 0,0 0 1.010,6
21:15 11,2 6,0 8,7 70,0 4,6 32 - 0,0 0 1.010,5
21:14 11,2 6,1 8,8 70,4 4,8 55 - 0,0 0 1.010,5
21:13 11,2 6,2 8,9 71,0 4,9 41 - 0,0 0 1.010,5
21:12 11,2 6,2 8,9 71,0 4,5 28 - 0,0 0 1.010,4
21:11 11,3 6,1 8,8 70,3 4,1 47 - 0,0 0 1.010,4
21:10 11,3 6,1 8,8 70,0 4,2 24 - 0,0 0 1.010,4
21:09 11,3 6,1 8,8 70,2 4,5 43 - 0,0 0 1.010,5
21:08 11,3 6,2 8,9 70,7 4,5 64 - 0,0 0 1.010,5
21:07 11,3 6,2 8,9 70,5 4,3 28 - 0,0 0 1.010,4
21:06 11,4 6,4 9,0 71,0 4,3 62 - 0,0 1 1.010,4
21:05 11,4 6,4 9,1 71,0 4,2 41 - 0,0 5 1.010,4
21:04 11,4 6,4 9,1 71,0 3,7 71 - 0,0 5 1.010,4
21:03 11,4 6,4 9,1 71,0 3,5 35 - 0,0 5 1.010,4
21:02 11,4 6,4 9,1 71,0 4,0 26 - 0,0 5 1.010,3
21:01 11,5 6,5 9,1 71,0 4,4 63 - 0,0 5 1.010,3
21:00 11,5 6,5 9,1 71,0 4,6 40 - 0,0 5 1.010,4
 
20:59 11,5 6,5 9,1 71,0 4,7 45 - 0,0 5 1.010,4
20:58 11,5 6,5 9,1 71,0 4,5 45 - 0,0 5 1.010,3
20:57 11,5 6,5 9,2 71,0 4,2 33 - 0,0 5 1.010,3
20:56 11,5 6,5 9,2 71,0 4,0 32 - 0,0 5 1.010,3
20:55 11,5 6,5 9,2 71,0 3,8 43 - 0,0 5 1.010,3
20:54 11,5 6,5 9,2 71,0 3,5 51 - 0,0 5 1.010,3
20:53 11,6 6,5 9,2 71,0 3,1 25 - 0,0 6 1.010,3
20:52 11,5 6,5 9,2 71,0 3,2 47 - 0,0 7 1.010,2
20:51 11,5 6,5 9,2 71,0 3,9 20 - 0,0 7 1.010,3
20:50 11,5 6,4 9,1 70,6 4,3 62 - 0,0 7 1.010,4
20:49 11,6 6,3 9,1 70,0 4,3 14 - 0,0 7 1.010,3
20:48 11,6 6,3 9,1 70,0 4,7 35 - 0,0 7 1.010,3
20:47 11,6 6,5 9,2 70,9 5,1 29 - 0,0 7 1.010,3
20:46 11,6 6,6 9,2 71,0 4,8 28 - 0,0 8 1.010,3
20:45 11,6 6,6 9,3 71,0 3,7 61 - 0,0 9 1.010,3
20:44 11,7 6,6 9,3 71,0 3,6 37 - 0,0 11 1.010,3
20:43 11,7 6,6 9,3 71,0 3,6 49 - 0,0 11 1.010,4
20:42 11,7 6,6 9,3 71,0 4,0 33 - 0,0 11 1.010,4
20:41 11,7 6,7 9,3 71,0 4,1 28 - 0,0 11 1.010,3
20:40 11,7 6,7 9,3 71,0 4,2 53 - 0,0 11 1.010,3
20:39 11,7 6,7 9,4 71,0 3,6 9 - 0,0 12 1.010,3
20:38 11,7 6,7 9,3 71,0 2,9 48 - 0,0 12 1.010,2
20:37 11,7 6,7 9,4 71,0 2,8 36 - 0,0 14 1.010,2
20:36 11,8 6,7 9,4 71,0 3,3 39 - 0,0 14 1.010,2
20:35 11,8 6,7 9,4 71,0 4,0 42 - 0,0 14 1.010,3
20:34 11,8 6,8 9,4 71,0 4,5 31 - 0,0 14 1.010,3
20:33 11,8 6,8 9,5 71,4 4,5 48 - 0,0 14 1.010,3
20:32 11,8 7,0 9,6 72,0 4,2 38 - 0,0 16 1.010,3
20:31 11,8 7,0 9,5 72,0 4,0 70 - 0,0 16 1.010,2
20:30 11,8 6,8 9,4 71,2 3,9 61 - 0,0 18 1.010,2
20:29 11,8 6,8 9,4 71,0 4,1 36 - 0,0 20 1.010,3
20:28 11,8 6,8 9,5 71,0 4,3 19 - 0,0 21 1.010,2
20:27 11,8 6,8 9,5 71,0 4,3 345 - 0,0 22 1.010,3
20:26 11,9 6,8 9,5 71,0 4,2 30 - 0,0 23 1.010,3
20:25 11,9 6,9 9,5 71,0 4,4 41 - 0,0 25 1.010,3
20:24 11,9 6,9 9,5 71,0 4,2 50 - 0,0 27 1.010,2
20:23 11,9 6,8 9,5 70,9 4,0 20 - 0,0 28 1.010,3
20:22 11,9 6,7 9,4 70,0 4,0 53 - 0,0 28 1.010,2
20:21 11,9 6,7 9,4 70,0 4,0 44 - 0,0 28 1.010,2
20:20 11,9 6,7 9,4 70,0 3,6 43 - 0,0 26 1.010,2
20:19 11,9 6,7 9,4 70,0 3,3 32 - 0,0 26 1.010,2
20:18 11,9 6,7 9,4 70,0 3,5 47 - 0,0 26 1.010,3
20:17 12,0 6,7 9,5 70,0 4,0 16 - 0,0 27 1.010,3
20:16 12,0 6,8 9,5 70,3 4,3 61 - 0,0 29 1.010,3
20:15 12,0 7,0 9,7 71,0 4,4 51 - 0,0 32 1.010,3
20:14 12,1 7,0 9,7 71,0 4,3 28 - 0,0 32 1.010,3
20:13 12,1 7,1 9,7 71,0 4,4 27 - 0,0 32 1.010,3
20:12 12,1 7,1 9,7 71,0 4,8 69 - 0,0 32 1.010,3
20:11 12,1 7,1 9,7 71,0 5,0 47 - 0,0 32 1.010,3
20:10 12,1 7,1 9,7 71,0 4,3 51 - 0,0 32 1.010,3
20:09 12,2 7,1 9,8 71,0 4,1 4 - 0,0 34 1.010,3
20:08 12,2 7,1 9,8 71,0 4,2 17 - 0,0 39 1.010,3
20:07 12,2 7,1 9,8 71,0 4,3 57 - 0,0 43 1.010,3
20:06 12,2 7,1 9,8 71,0 4,3 24 - 0,0 48 1.010,4
20:05 12,1 6,9 9,6 70,1 4,4 28 - 0,0 48 1.010,4
20:04 12,2 6,9 9,7 70,0 4,4 59 - 0,0 46 1.010,4
20:03 12,2 6,9 9,7 70,0 4,1 24 - 0,0 45 1.010,4
20:02 12,2 6,9 9,7 70,0 4,0 33 - 0,0 44 1.010,4
20:01 12,2 6,9 9,7 70,0 3,8 16 - 0,0 44 1.010,4
20:00 12,2 6,9 9,7 70,0 3,9 53 - 0,0 45 1.010,4
 
19:59 12,2 6,9 9,7 69,9 4,1 71 - 0,0 45 1.010,4
19:58 12,2 6,7 9,6 69,0 3,8 68 - 0,0 44 1.010,4
19:57 12,2 6,7 9,5 69,0 3,6 41 - 0,0 44 1.010,5
19:56 12,2 6,8 9,6 69,0 4,1 32 - 0,0 44 1.010,6
19:55 12,2 6,8 9,6 69,0 4,6 56 - 0,0 47 1.010,5
19:54 12,2 6,8 9,6 69,0 4,8 45 - 0,0 51 1.010,4
19:53 12,2 6,8 9,6 69,0 4,7 54 - 0,0 55 1.010,3
19:52 12,2 6,7 9,6 68,7 4,5 26 - 0,0 55 1.010,3
19:51 12,2 6,6 9,5 68,0 4,3 34 - 0,0 53 1.010,4
19:50 12,3 6,6 9,5 68,0 4,3 10 - 0,0 52 1.010,4
19:49 12,3 6,6 9,6 68,0 4,4 45 - 0,0 60 1.010,3
19:48 12,3 6,7 9,6 68,0 4,4 46 - 0,0 51 1.010,4
19:47 12,4 6,7 9,6 68,0 4,0 36 - 0,0 52 1.010,4
19:46 12,4 6,7 9,6 68,0 3,8 22 - 0,0 54 1.010,4
19:45 12,4 6,7 9,6 68,0 3,7 39 - 0,0 56 1.010,3
19:44 12,4 6,7 9,7 68,0 4,1 43 - 0,0 56 1.010,4
19:43 12,4 6,8 9,7 68,0 4,3 53 - 0,0 57 1.010,4
19:42 12,5 7,0 9,8 68,9 4,5 46 - 0,0 64 1.010,5
19:41 12,5 6,8 9,7 68,0 4,4 55 - 0,0 64 1.010,5
19:40 12,5 6,8 9,8 68,0 4,5 9 - 0,0 64 1.010,5
19:39 12,5 6,9 9,8 68,0 4,6 1 - 0,0 63 1.010,4
19:38 12,5 6,8 9,8 68,0 3,9 17 - 0,0 65 1.010,4
19:37 12,5 6,8 9,8 68,0 3,7 51 - 0,0 69 1.010,3
19:36 12,5 6,8 9,8 68,0 3,9 10 - 0,0 69 1.010,4
19:35 12,6 6,9 9,8 68,0 4,2 34 - 0,0 65 1.010,4
19:34 12,6 6,9 9,8 68,0 3,9 12 - 0,0 82 1.010,4
19:33 12,6 6,9 9,8 68,0 3,7 53 - 0,0 90 1.010,4
19:32 12,6 6,9 9,8 68,0 3,6 2 - 0,0 90 1.010,4
19:31 12,6 6,9 9,8 68,0 3,6 37 - 0,0 81 1.010,4
19:30 12,6 6,9 9,8 68,0 3,5 29 - 0,0 71 1.010,4
19:29 12,6 6,9 9,8 68,0 3,4 38 - 0,0 77 1.010,4
19:28 12,6 6,9 9,8 68,0 3,2 47 - 0,0 79 1.010,4
19:27 12,6 6,9 9,8 68,0 3,1 32 - 0,0 83 1.010,4
19:26 12,6 6,9 9,8 68,0 3,2 49 - 0,0 90 1.010,4
19:25 12,6 6,7 9,8 67,2 3,3 5 - 0,0 91 1.010,5
19:24 12,7 6,8 9,8 67,0 3,4 33 - 0,0 96 1.010,4
19:23 12,7 6,8 9,8 67,0 3,8 47 - 0,0 99 1.010,5
19:22 12,7 6,8 9,9 67,0 4,6 72 - 0,0 100 1.010,6
19:21 12,8 6,9 9,9 67,0 4,9 53 - 0,0 100 1.010,6
19:20 12,8 6,9 10,0 67,0 5,2 20 - 0,0 108 1.010,7
19:19 12,9 7,0 10,0 67,0 4,8 49 - 0,0 122 1.010,6
19:18 13,0 7,3 10,2 68,0 4,6 74 - 0,0 120 1.010,5
19:17 13,0 7,3 10,2 68,0 4,0 59 - 0,0 118 1.010,5
19:16 13,0 7,3 10,2 68,0 3,7 24 - 0,0 120 1.010,5
19:15 13,0 7,3 10,2 68,0 3,3 56 - 0,0 129 1.010,4
19:14 13,0 7,3 10,2 68,0 3,1 50 - 0,0 217 1.010,5
19:13 13,0 7,3 10,2 68,0 3,5 21 - 0,0 202 1.010,5
19:12 12,9 7,2 10,2 68,0 3,9 32 - 0,0 150 1.010,5
19:11 12,9 7,2 10,2 68,0 3,8 36 - 0,0 143 1.010,4
19:10 12,9 7,2 10,2 68,0 3,6 41 - 0,0 141 1.010,3
19:09 12,9 7,2 10,2 68,0 3,8 61 - 0,0 178 1.010,3
19:08 12,9 7,2 10,2 68,0 4,2 44 - 0,0 252 1.010,4
19:07 12,9 7,2 10,1 68,0 4,2 22 - 0,0 212 1.010,4
19:06 12,9 7,2 10,1 68,0 4,4 30 - 0,0 169 1.010,4
19:05 12,9 7,2 10,1 68,0 4,5 36 - 0,0 201 1.010,4
19:04 12,9 7,2 10,2 68,0 4,7 48 - 0,0 211 1.010,4
19:03 12,9 7,2 10,2 68,0 4,7 39 - 0,0 210 1.010,4
19:02 13,0 7,3 10,2 68,0 4,8 26 - 0,0 198 1.010,4
19:01 13,0 7,3 10,2 68,0 4,2 42 - 0,0 167 1.010,4
19:00 13,0 7,3 10,2 68,0 3,8 44 - 0,0 151 1.010,5
 
18:59 13,0 7,3 10,2 68,0 3,5 29 - 0,0 186 1.010,5
18:58 13,0 7,3 10,2 68,0 3,4 21 - 0,0 184 1.010,4
18:57 13,0 7,3 10,2 68,0 3,2 56 - 0,0 158 1.010,3
18:56 13,0 7,3 10,2 68,0 3,5 2 - 0,0 154 1.010,3
18:55 13,0 7,3 10,2 68,0 3,6 13 - 0,0 155 1.010,3
18:54 13,0 7,3 10,2 68,0 3,2 17 - 0,0 159 1.010,4
18:53 12,9 7,2 10,2 68,0 3,0 50 - 0,0 166 1.010,4
18:52 12,9 7,2 10,1 68,0 3,4 36 - 0,0 169 1.010,4
18:51 13,0 7,3 10,2 68,0 4,0 49 - 0,0 163 1.010,5
18:50 13,0 7,3 10,2 68,0 4,0 24 - 0,0 150 1.010,4
18:49 12,9 7,2 10,2 68,0 3,6 26 - 0,0 149 1.010,4
18:48 12,9 7,2 10,2 68,0 3,0 22 - 0,0 148 1.010,4
18:47 12,9 7,2 10,2 68,0 2,8 61 - 0,0 149 1.010,4
18:46 13,0 7,1 10,1 67,5 3,0 32 - 0,0 148 1.010,5
18:45 13,0 7,1 10,1 67,0 3,3 23 - 0,0 146 1.010,5
18:44 13,0 7,1 10,1 67,0 4,1 72 - 0,0 147 1.010,4
18:43 13,0 7,1 10,1 67,0 4,4 34 - 0,0 142 1.010,5
18:42 13,0 7,2 10,2 67,3 4,5 39 - 0,0 136 1.010,5
18:41 13,1 7,4 10,3 68,0 3,8 15 - 0,0 129 1.010,4
18:40 13,1 7,2 10,2 67,4 3,3 70 - 0,0 127 1.010,4
18:39 13,1 7,1 10,1 67,0 3,4 43 - 0,0 125 1.010,5
18:38 13,1 7,1 10,1 67,0 4,0 43 - 0,0 124 1.010,5
18:37 13,1 7,1 10,1 67,0 4,3 52 - 0,0 130 1.010,5
18:36 13,1 7,2 10,2 67,0 4,4 57 - 0,0 141 1.010,5
18:35 13,1 7,2 10,2 67,0 4,6 44 - 0,0 142 1.010,6
18:34 13,1 7,2 10,2 67,0 4,5 41 - 0,0 145 1.010,6
18:33 13,1 7,2 10,2 67,0 4,1 22 - 0,0 157 1.010,5
18:32 13,1 7,2 10,2 67,0 3,5 28 - 0,0 152 1.010,5
18:31 13,1 7,2 10,2 67,0 3,0 42 - 0,0 149 1.010,5
18:30 13,1 7,2 10,2 67,0 3,1 44 - 0,0 157 1.010,4
18:29 13,2 7,2 10,3 67,0 3,4 36 - 0,0 155 1.010,4
18:28 13,1 7,2 10,2 67,0 3,3 22 - 0,0 148 1.010,5
18:27 13,1 7,2 10,2 67,0 2,8 45 - 0,0 144 1.010,5
18:26 13,1 7,2 10,2 67,0 2,4 14 - 0,0 136 1.010,4
18:25 13,1 7,0 10,1 66,0 2,3 63 - 0,0 133 1.010,4
18:24 13,1 7,0 10,1 66,0 2,5 49 - 0,0 132 1.010,4
18:23 13,1 7,0 10,1 66,0 3,3 57 - 0,0 134 1.010,5
18:22 13,2 7,0 10,1 66,0 4,0 36 - 0,0 144 1.010,5
18:21 13,2 7,0 10,1 66,0 4,2 45 - 0,0 158 1.010,5
18:20 13,2 7,1 10,2 66,0 4,3 44 - 0,0 162 1.010,5
18:19 13,2 7,1 10,2 66,0 4,6 53 - 0,0 164 1.010,5
18:18 13,3 7,2 10,3 66,4 4,8 72 - 0,0 165 1.010,4
18:17 13,3 7,3 10,3 67,0 4,6 36 - 0,0 165 1.010,5
18:16 13,3 7,4 10,4 67,0 4,2 49 - 0,0 160 1.010,5
18:15 13,3 7,4 10,4 67,0 3,8 9 - 0,0 155 1.010,5
18:14 13,3 7,2 10,3 66,2 4,0 5 - 0,0 152 1.010,6
18:13 13,4 7,4 10,4 67,0 3,9 36 - 0,0 158 1.010,6
18:12 13,4 7,5 10,5 67,0 4,1 21 - 0,0 169 1.010,5
18:11 13,4 7,5 10,5 67,0 4,2 24 - 0,0 177 1.010,5
18:10 13,4 7,4 10,4 67,0 3,8 54 - 0,0 169 1.010,5
18:09 13,4 7,5 10,5 67,0 3,3 345 - 0,0 180 1.010,5
18:08 13,4 7,5 10,5 67,0 3,3 62 - 0,0 194 1.010,5
18:07 13,4 7,4 10,4 66,8 3,6 20 - 0,0 172 1.010,4
18:06 13,4 7,2 10,3 66,0 3,8 70 - 0,0 155 1.010,4
18:05 13,4 7,2 10,3 66,0 4,0 49 - 0,0 151 1.010,5
18:04 13,4 7,2 10,3 66,0 3,5 43 - 0,0 147 1.010,5
18:03 13,4 7,3 10,4 66,0 3,2 29 - 0,0 145 1.010,5
18:02 13,4 7,3 10,4 66,0 3,4 54 - 0,0 158 1.010,5
18:01 13,4 7,2 10,4 65,7 3,9 55 - 0,0 170 1.010,6
18:00 13,5 7,2 10,4 65,5 4,3 70 - 0,0 172 1.010,5
 
17:59 13,5 7,4 10,5 66,0 4,2 53 - 0,0 172 1.010,4
17:58 13,5 7,2 10,4 65,3 3,5 43 - 0,0 186 1.010,5
17:57 13,6 7,2 10,4 65,0 3,5 345 - 0,0 173 1.010,5
17:56 13,6 7,0 10,3 64,1 4,4 40 - 0,0 180 1.010,5
17:55 13,6 7,0 10,3 64,0 5,0 50 - 0,0 180 1.010,5
17:54 13,7 7,1 10,4 64,0 4,3 47 - 0,0 193 1.010,5
17:53 13,8 7,2 10,5 64,0 4,0 81 - 0,0 194 1.010,5
17:52 13,9 7,4 10,6 64,8 4,6 50 - 0,0 192 1.010,5
17:51 13,9 7,5 10,7 65,0 4,7 57 - 0,0 200 1.010,5
17:50 13,9 7,5 10,7 65,0 4,2 22 - 0,0 215 1.010,5
17:49 14,0 7,6 10,7 65,0 4,3 30 - 0,0 234 1.010,5
17:48 14,0 7,6 10,8 65,0 4,7 5 - 0,0 248 1.010,5
17:47 14,0 7,6 10,8 65,0 5,1 43 - 0,0 251 1.010,5
17:46 14,0 7,8 10,9 66,0 4,7 40 - 0,0 256 1.010,5
17:45 14,0 7,8 10,9 66,0 4,2 57 - 0,0 243 1.010,5
17:44 14,0 7,8 10,9 66,0 3,5 51 - 0,0 274 1.010,5
17:43 14,1 8,0 11,0 66,4 3,4 101 - 0,0 324 1.010,5
17:42 14,1 8,4 11,3 68,0 3,8 36 - 0,0 245 1.010,5
17:41 14,2 8,7 11,4 69,0 4,1 84 - 0,0 263 1.010,5
17:40 14,2 8,7 11,4 69,0 3,9 19 - 0,0 503 1.010,4
17:39 14,2 8,6 11,4 68,9 5,4 339 - 0,0 503 1.010,4
17:38 14,2 8,4 11,3 68,0 5,7 4 - 0,0 503 1.010,4
17:37 14,2 8,5 11,4 68,6 5,5 345 - 0,0 503 1.010,4
17:36 14,1 8,6 11,4 69,0 5,3 345 - 0,0 434 1.010,4
17:35 14,1 8,4 11,3 68,4 5,2 0 - 0,0 490 1.010,5
17:34 14,1 8,3 11,2 68,0 5,2 1 - 0,0 479 1.010,5
17:33 14,1 8,3 11,2 68,0 5,3 7 - 0,0 488 1.010,5
17:32 14,0 8,3 11,2 68,0 5,1 11 - 0,0 501 1.010,5
17:31 14,0 8,3 11,1 68,0 4,6 355 - 0,0 502 1.010,5
17:30 14,0 8,2 11,1 68,0 4,6 30 - 0,0 498 1.010,5
17:29 14,0 8,4 11,2 68,7 5,3 345 - 0,0 501 1.010,4
17:28 14,0 8,5 11,3 69,0 5,1 350 - 0,0 511 1.010,4
17:27 14,0 8,4 11,2 69,0 4,9 56 - 0,0 481 1.010,4
17:26 14,0 8,4 11,2 69,0 4,6 350 - 0,0 468 1.010,4
17:25 14,0 8,4 11,2 69,0 5,1 333 - 0,0 481 1.010,4
17:24 14,0 8,4 11,2 69,0 5,1 29 - 0,0 476 1.010,5
17:23 13,9 8,3 11,1 68,3 4,7 350 - 0,0 477 1.010,5
17:22 13,9 8,2 11,1 68,0 4,4 305 - 0,0 473 1.010,5
17:21 13,9 8,2 11,1 68,2 4,1 24 - 0,0 461 1.010,4
17:20 14,0 8,4 11,2 69,0 5,4 59 - 0,0 458 1.010,4
17:19 13,9 8,4 11,2 69,0 5,1 6 - 0,0 437 1.010,4
17:18 13,9 8,3 11,1 68,4 5,0 5 - 0,0 410 1.010,4
17:17 13,9 8,2 11,1 68,0 4,8 350 - 0,0 388 1.010,4
17:16 13,9 8,2 11,1 68,0 4,8 14 - 0,0 368 1.010,5
17:15 13,9 8,2 11,1 68,0 4,6 323 - 0,0 375 1.010,5
17:14 13,9 8,3 11,1 68,3 4,7 295 - 0,0 370 1.010,4
17:13 14,0 8,5 11,2 69,0 4,7 2 - 0,0 356 1.010,5
17:12 14,0 8,5 11,2 69,0 5,2 5 - 0,0 325 1.010,5
17:11 14,0 8,6 11,3 69,8 4,4 328 - 0,0 338 1.010,5
17:10 13,9 8,4 11,2 69,1 3,7 326 - 0,0 340 1.010,4
17:09 13,9 8,2 11,0 68,0 3,5 350 - 0,0 333 1.010,5
17:08 13,9 8,2 11,0 68,0 4,5 9 - 0,0 336 1.010,5
17:07 13,9 8,2 11,1 68,0 5,0 5 - 0,0 341 1.010,5
17:06 13,9 8,2 11,1 68,0 5,1 332 - 0,0 338 1.010,5
17:05 14,0 8,2 11,1 68,0 4,9 7 - 0,0 336 1.010,4
17:04 14,0 8,2 11,1 68,0 5,6 39 - 0,0 338 1.010,4
17:03 14,0 8,3 11,1 68,0 5,6 49 - 0,0 387 1.010,5
17:02 14,0 8,3 11,1 68,0 5,4 3 - 0,0 425 1.010,5
17:01 14,0 8,3 11,1 68,0 5,8 18 - 0,0 458 1.010,4
17:00 14,0 8,3 11,1 68,0 5,3 32 - 0,0 470 1.010,5
 
16:59 14,0 8,3 11,1 68,0 4,9 321 - 0,0 473 1.010,4
16:58 14,0 8,3 11,1 68,1 4,9 34 - 0,0 477 1.010,3
16:57 14,0 8,5 11,3 69,0 5,4 330 - 0,0 485 1.010,3
16:56 14,0 8,5 11,3 69,0 5,5 345 - 0,0 456 1.010,4
16:55 14,0 8,5 11,3 69,0 5,4 24 - 0,0 424 1.010,4
16:54 14,0 8,5 11,3 69,0 4,7 337 - 0,0 397 1.010,3
16:53 14,0 8,3 11,1 68,2 4,7 56 - 0,0 412 1.010,4
16:52 14,0 8,2 11,1 68,0 5,6 15 - 0,0 396 1.010,4
16:51 13,9 8,2 11,1 68,0 5,6 22 - 0,0 395 1.010,4
16:50 13,9 8,2 11,1 68,0 4,4 345 - 0,0 404 1.010,5
16:49 13,9 8,2 11,1 68,0 4,1 71 - 0,0 404 1.010,4
16:48 13,9 8,2 11,0 68,0 4,6 11 - 0,0 387 1.010,4
16:47 13,9 8,1 11,0 68,0 5,2 4 - 0,0 407 1.010,5
16:46 13,9 8,2 11,0 68,0 4,9 0 - 0,0 397 1.010,5
16:45 13,9 8,2 11,1 68,0 4,6 42 - 0,0 408 1.010,5
16:44 13,9 8,2 11,0 68,0 3,9 7 - 0,0 387 1.010,4
16:43 13,9 8,2 11,1 68,0 4,3 309 - 0,0 362 1.010,4
16:42 13,9 8,2 11,1 68,0 4,7 12 - 0,0 376 1.010,4
16:41 13,9 8,2 11,1 67,9 5,0 359 - 0,0 379 1.010,4
16:40 13,9 8,0 11,0 67,2 5,3 321 - 0,0 396 1.010,4
16:39 13,9 8,1 11,0 67,7 5,9 0 - 0,0 388 1.010,4
16:38 14,0 8,0 11,0 67,0 6,7 1 - 0,0 389 1.010,5
16:37 14,0 8,0 11,0 67,0 6,3 5 - 0,0 405 1.010,5
16:36 14,0 8,0 11,0 67,0 5,8 19 - 0,0 419 1.010,4
16:35 14,0 8,3 11,2 67,9 5,6 350 - 0,0 478 1.010,6
16:34 14,0 8,3 11,2 68,0 5,7 30 - 0,0 478 1.010,6
16:33 14,0 8,3 11,2 68,3 5,5 18 - 0,0 477 1.010,5
16:32 14,0 8,5 11,3 69,0 5,3 345 - 0,0 485 1.010,4
16:31 13,9 8,3 11,1 68,4 4,9 15 - 0,0 501 1.010,4
16:30 13,9 8,2 11,1 68,0 4,8 42 - 0,0 509 1.010,5
16:29 13,9 8,2 11,1 68,0 3,2 350 - 0,0 506 1.010,5
16:28 13,9 8,2 11,1 68,0 3,3 269 - 0,0 485 1.010,6
16:27 14,0 8,2 11,1 68,0 3,9 359 - 0,0 425 1.010,7
16:26 14,0 8,2 11,1 68,0 5,2 355 - 0,0 407 1.010,6
16:25 14,0 8,3 11,1 68,0 5,1 36 - 0,0 411 1.010,5
16:24 14,0 8,2 11,1 68,0 5,2 28 - 0,0 421 1.010,4
16:23 14,0 8,3 11,1 68,0 4,8 36 - 0,0 424 1.010,4
16:22 14,0 8,3 11,1 68,0 4,8 334 - 0,0 424 1.010,5
16:21 14,0 8,2 11,1 68,0 4,6 337 - 0,0 419 1.010,5
16:20 14,0 8,3 11,1 68,0 4,6 41 - 0,0 406 1.010,5
16:19 14,0 8,3 11,1 68,0 5,2 330 - 0,0 420 1.010,5
16:18 14,0 8,3 11,1 68,0 5,9 336 - 0,0 408 1.010,5
16:17 14,0 8,3 11,1 68,0 5,1 324 - 0,0 395 1.010,5
16:16 14,0 8,2 11,1 67,8 4,7 14 - 0,0 363 1.010,6
16:15 14,0 8,0 11,0 67,0 4,6 330 - 0,0 386 1.010,6
16:14 13,9 8,0 11,0 67,0 5,0 332 - 0,0 398 1.010,6
16:13 14,0 8,0 11,0 67,0 5,0 9 - 0,0 407 1.010,6
16:12 14,0 8,0 11,0 67,0 5,2 32 - 0,0 411 1.010,6
16:11 14,0 8,1 11,0 67,0 5,2 345 - 0,0 411 1.010,6
16:10 14,0 8,1 11,1 67,0 5,5 18 - 0,0 409 1.010,7
16:09 14,1 8,1 11,1 67,0 4,4 328 - 0,0 398 1.010,7
16:08 14,1 8,1 11,1 67,0 3,8 66 - 0,0 406 1.010,7
16:07 14,1 8,2 11,1 67,0 5,0 64 - 0,0 410 1.010,7
16:06 14,1 8,1 11,1 67,0 5,2 14 - 0,0 412 1.010,7
16:05 14,1 8,3 11,2 67,9 4,9 37 - 0,0 428 1.010,6
16:04 14,1 8,1 11,1 66,8 4,7 345 - 0,0 439 1.010,6
16:03 14,1 7,9 11,0 66,0 5,0 340 - 0,0 435 1.010,6
16:02 14,1 8,0 11,0 66,0 5,3 35 - 0,0 444 1.010,7
16:01 14,2 8,0 11,1 66,0 5,8 355 - 0,0 441 1.010,7
16:00 14,2 8,0 11,1 66,0 6,3 17 - 0,0 434 1.010,7
 
15:59 14,2 8,3 11,2 66,9 6,3 11 - 0,0 451 1.010,7
15:58 14,2 8,2 11,2 66,7 5,9 355 - 0,0 447 1.010,7
15:57 14,3 8,2 11,2 66,5 5,1 345 - 0,0 442 1.010,7
15:56 14,3 8,3 11,3 67,0 3,1 303 - 0,0 441 1.010,7
15:55 14,3 8,3 11,3 67,0 2,6 76 - 0,0 462 1.010,8
15:54 14,3 8,3 11,3 67,0 3,2 330 - 0,0 522 1.010,7
15:53 14,2 8,3 11,2 67,0 3,5 70 - 0,0 559 1.010,7
15:52 14,2 8,3 11,2 67,0 3,8 13 - 0,0 577 1.010,8
15:51 14,2 8,3 11,3 67,5 4,1 336 - 0,0 546 1.010,7
15:50 14,2 8,4 11,3 68,0 3,8 54 - 0,0 544 1.010,7
15:49 14,1 8,4 11,2 68,0 4,2 45 - 0,0 519 1.010,7
15:48 14,1 8,1 11,1 67,0 4,4 65 - 0,0 516 1.010,8
15:47 14,1 8,1 11,1 67,0 4,8 30 - 0,0 503 1.010,8
15:46 14,1 8,1 11,1 67,0 5,3 18 - 0,0 494 1.010,8
15:45 14,1 8,1 11,1 67,0 5,1 24 - 0,0 534 1.010,7
15:44 14,1 8,1 11,1 67,0 5,0 338 - 0,0 558 1.010,8
15:43 14,1 8,3 11,2 67,8 5,1 350 - 0,0 554 1.010,8
15:42 14,1 8,3 11,2 68,0 4,3 350 - 0,0 553 1.010,8
15:41 14,0 8,3 11,2 68,0 4,4 53 - 0,0 569 1.010,8
15:40 14,0 8,3 11,1 68,0 4,8 9 - 0,0 540 1.010,9
15:39 14,0 8,3 11,1 68,0 5,5 18 - 0,0 553 1.010,9
15:38 14,0 8,3 11,1 68,0 5,2 9 - 0,0 510 1.010,9
15:37 14,0 8,1 11,0 67,2 4,0 359 - 0,0 446 1.010,9
15:36 13,9 8,2 11,1 68,0 3,5 76 - 0,0 460 1.010,9
15:35 13,9 8,2 11,1 68,0 3,5 355 - 0,0 463 1.010,9
15:34 13,9 8,2 11,0 68,0 4,3 330 - 0,0 465 1.010,8
15:33 13,9 8,1 11,0 68,0 4,7 355 - 0,0 488 1.010,8
15:32 13,9 8,2 11,0 68,0 5,1 345 - 0,0 480 1.010,8
15:31 13,9 7,9 10,9 67,2 4,9 337 - 0,0 438 1.010,9
15:30 13,9 8,1 11,0 68,0 4,6 335 - 0,0 390 1.010,9
15:29 13,9 8,1 11,0 67,8 4,6 359 - 0,0 385 1.010,9
15:28 13,8 7,9 10,9 67,0 4,3 319 - 0,0 365 1.010,9
15:27 13,9 7,9 10,9 67,0 4,4 13 - 0,0 385 1.011,0
15:26 13,9 7,9 10,9 67,0 4,7 345 - 0,0 409 1.011,0
15:25 13,9 7,9 10,9 67,0 4,8 18 - 0,0 432 1.011,0
15:24 13,9 7,9 10,9 67,0 4,8 345 - 0,0 432 1.011,0
15:23 13,9 8,0 11,0 67,0 5,3 334 - 0,0 438 1.011,0
15:22 13,9 8,0 11,0 67,0 4,7 332 - 0,0 445 1.011,0
15:21 13,9 8,0 11,0 67,0 4,5 31 - 0,0 454 1.011,0
15:20 14,0 8,0 11,0 67,0 4,9 350 - 0,0 446 1.011,0
15:19 14,0 8,2 11,1 67,9 5,2 27 - 0,0 447 1.011,0
15:18 14,0 8,2 11,1 68,0 4,5 350 - 0,0 450 1.011,0
15:17 13,9 8,1 11,1 67,7 3,9 64 - 0,0 457 1.010,9
15:16 13,9 8,0 10,9 67,0 4,4 25 - 0,0 462 1.011,0
15:15 13,9 8,0 10,9 67,0 4,7 29 - 0,0 451 1.010,9
15:14 13,9 8,0 10,9 67,0 4,6 355 - 0,0 482 1.010,9
15:13 13,9 8,0 11,0 67,0 4,1 336 - 0,0 505 1.011,0
15:12 14,0 8,0 11,0 67,0 4,2 43 - 0,0 503 1.011,0
15:11 13,9 8,0 11,0 67,0 4,4 355 - 0,0 503 1.011,1
15:10 13,9 8,0 11,0 67,0 4,9 340 - 0,0 517 1.011,0
15:09 13,9 8,0 10,9 67,0 5,1 336 - 0,0 527 1.011,0
15:08 13,9 7,9 10,9 67,0 5,1 325 - 0,0 544 1.011,0
15:07 13,9 8,1 11,0 67,9 4,9 350 - 0,0 556 1.011,1
15:06 13,8 8,1 11,0 68,0 4,7 5 - 0,0 563 1.011,1
15:05 13,8 8,1 11,0 68,0 4,5 30 - 0,0 568 1.011,0
15:04 13,8 8,1 11,0 68,0 4,5 345 - 0,0 576 1.011,0
15:03 13,8 8,0 10,9 68,0 4,9 9 - 0,0 592 1.011,0
15:02 13,8 8,0 10,9 68,0 4,2 11 - 0,0 608 1.011,0
15:01 13,7 7,8 10,8 67,2 3,8 299 - 0,0 626 1.011,0
15:00 13,7 8,0 10,9 68,0 4,1 37 - 0,0 636 1.011,1
 
14:59 13,7 8,0 10,9 68,0 5,2 336 - 0,0 639 1.011,1
14:58 13,7 8,0 10,9 68,0 5,8 1 - 0,0 632 1.011,1
14:57 13,7 8,0 10,9 68,0 5,7 355 - 0,0 624 1.011,0
14:56 13,7 8,0 10,8 68,0 5,3 332 - 0,0 614 1.011,1
14:55 13,7 7,9 10,8 68,0 4,8 338 - 0,0 621 1.011,1
14:54 13,7 7,9 10,8 68,0 5,1 28 - 0,0 587 1.011,1
14:53 13,7 7,9 10,8 68,0 5,3 332 - 0,0 568 1.011,1
14:52 13,7 8,0 10,9 68,0 5,2 3 - 0,0 559 1.011,1
14:51 13,7 8,0 10,9 68,0 4,9 19 - 0,0 556 1.011,1
14:50 13,7 8,0 10,9 68,0 4,9 34 - 0,0 553 1.011,1
14:49 13,8 8,0 10,9 68,0 5,2 28 - 0,0 547 1.011,1
14:48 13,8 8,0 10,9 68,0 5,9 350 - 0,0 521 1.011,2
14:47 13,8 8,1 11,0 68,4 5,9 1 - 0,0 529 1.011,2
14:46 13,8 8,3 11,1 69,0 4,6 345 - 0,0 557 1.011,1
14:45 13,8 8,1 11,0 68,3 4,1 49 - 0,0 532 1.011,2
14:44 13,8 8,1 10,9 68,2 4,4 355 - 0,0 560 1.011,1
14:43 13,8 8,2 11,0 69,0 5,3 359 - 0,0 579 1.011,3
14:42 13,8 8,2 11,0 68,7 5,2 6 - 0,0 599 1.011,2
14:41 13,7 8,1 10,9 68,4 5,0 355 - 0,0 596 1.011,2
14:40 13,7 8,1 10,9 68,5 4,3 345 - 0,0 592 1.011,2
14:39 13,7 7,9 10,8 68,0 4,2 43 - 0,0 608 1.011,1
14:38 13,7 8,1 10,9 68,9 4,5 30 - 0,0 584 1.011,2
14:37 13,7 8,2 10,9 69,0 4,8 26 - 0,0 609 1.011,3
14:36 13,7 8,2 10,9 69,0 5,0 5 - 0,0 664 1.011,3
14:35 13,7 8,2 10,9 69,0 5,2 20 - 0,0 703 1.011,3
14:34 13,6 8,1 10,9 69,0 5,2 4 - 0,0 336 1.011,2
14:33 13,6 8,1 10,9 69,0 5,3 20 - 0,0 294 1.011,2
14:32 13,7 8,2 10,9 69,0 5,6 19 - 0,0 423 1.011,2
14:31 13,7 8,4 11,1 70,0 5,6 12 - 0,0 663 1.011,2
14:30 13,6 8,3 11,0 70,0 5,1 13 - 0,0 663 1.011,2
14:29 13,6 8,3 11,0 70,0 4,3 39 - 0,0 663 1.011,2
14:28 13,6 8,3 11,0 70,0 4,2 59 - 0,0 663 1.011,2
14:27 13,5 8,1 10,8 69,3 3,8 68 - 0,0 669 1.011,2
14:26 13,5 8,0 10,8 69,0 4,7 350 - 0,0 649 1.011,2
14:25 13,6 8,0 10,8 69,0 5,3 15 - 0,0 626 1.011,2
14:24 13,6 8,1 10,9 69,0 5,0 340 - 0,0 654 1.011,2
14:23 13,6 8,1 10,9 69,0 5,0 35 - 0,0 654 1.011,3
14:22 13,6 8,2 11,0 69,6 5,2 345 - 0,0 655 1.011,3
14:21 13,6 8,2 10,9 69,3 5,0 1 - 0,0 674 1.011,4
14:20 13,6 8,2 10,9 69,9 4,3 350 - 0,0 712 1.011,4
14:19 13,5 8,0 10,8 69,0 4,2 337 - 0,0 497 1.011,4
14:18 13,5 8,0 10,8 69,0 4,3 355 - 0,0 299 1.011,4
14:17 13,5 8,0 10,8 69,0 4,6 15 - 0,0 299 1.011,5
14:16 13,6 8,0 10,8 69,0 4,6 350 - 0,0 299 1.011,4
14:15 13,6 8,1 10,9 69,0 4,7 2 - 0,0 299 1.011,4
14:14 13,7 7,9 10,8 68,1 5,1 345 - 0,0 437 1.011,4
14:13 13,7 7,9 10,8 68,0 5,0 345 - 0,0 645 1.011,3
14:12 13,7 8,0 10,9 68,0 3,8 326 - 0,0 645 1.011,3
14:11 13,8 8,0 10,9 68,0 3,5 55 - 0,0 645 1.011,4
14:10 13,8 8,0 10,9 68,0 4,3 26 - 0,0 652 1.011,4
14:09 13,8 8,0 10,9 68,0 4,6 55 - 0,0 570 1.011,3
14:08 13,8 8,1 11,0 68,0 5,2 7 - 0,0 589 1.011,2
14:07 13,8 8,1 11,0 68,0 5,6 43 - 0,0 654 1.011,3
14:06 13,8 8,1 11,0 68,0 5,1 14 - 0,0 682 1.011,3
14:05 13,8 7,9 10,9 67,5 3,6 46 - 0,0 680 1.011,3
14:04 13,7 7,8 10,8 67,0 2,9 325 - 0,0 654 1.011,3
14:03 13,7 7,9 10,8 67,9 2,8 355 - 0,0 723 1.011,3
14:02 13,6 7,8 10,8 67,9 2,9 45 - 0,0 712 1.011,3
14:01 13,5 7,6 10,6 67,0 3,0 48 - 0,0 693 1.011,3
14:00 13,5 7,6 10,6 67,0 2,9 43 - 0,0 701 1.011,3
 
13:59 13,5 7,6 10,6 67,0 2,4 68 - 0,0 701 1.011,3
13:58 13,5 7,6 10,6 67,0 2,5 45 - 0,0 710 1.011,3
13:57 13,5 7,6 10,6 67,0 2,9 37 - 0,0 697 1.011,3
13:56 13,6 7,7 10,7 67,3 3,8 49 - 0,0 696 1.011,4
13:55 13,6 8,1 10,9 69,0 3,8 53 - 0,0 695 1.011,3
13:54 13,6 8,1 10,9 69,0 2,8 80 - 0,0 660 1.011,4
13:53 13,6 8,2 11,0 69,6 2,4 359 - 0,0 650 1.011,4
13:52 13,6 8,3 11,0 70,0 3,2 32 - 0,0 650 1.011,4
13:51 13,6 8,0 10,8 69,0 3,5 23 - 0,0 669 1.011,4
13:50 13,5 8,0 10,8 69,0 3,0 355 - 0,0 705 1.011,5
13:49 13,4 7,9 10,7 68,7 2,5 30 - 0,0 705 1.011,5
13:48 13,4 7,8 10,6 68,5 2,7 14 - 0,0 705 1.011,4
13:47 13,4 8,1 10,8 69,6 2,7 46 - 0,0 269 1.011,4
13:46 13,4 8,1 10,8 70,0 2,7 61 - 0,0 246 1.011,4
13:45 13,3 8,0 10,7 70,0 2,5 40 - 0,0 497 1.011,4
13:44 13,2 7,9 10,6 69,8 3,1 7 - 0,0 874 1.011,4
13:43 13,2 7,8 10,5 69,4 3,5 46 - 0,0 874 1.011,5
13:42 13,1 7,7 10,5 69,5 3,3 32 - 0,0 874 1.011,5
13:41 13,0 7,5 10,4 69,0 2,3 71 - 0,0 874 1.011,4
13:40 13,0 7,5 10,3 69,0 2,0 345 - 0,0 860 1.011,4
13:39 12,9 7,3 10,2 68,1 2,2 36 - 0,0 800 1.011,3
13:38 12,9 7,2 10,1 68,0 3,1 89 - 0,0 775 1.011,3
13:37 12,9 7,2 10,2 68,0 3,7 74 - 0,0 779 1.011,4
13:36 13,0 7,3 10,2 68,0 3,9 74 - 0,0 785 1.011,4
13:35 13,0 7,4 10,2 68,7 3,5 93 - 0,0 717 1.011,5
13:34 12,9 7,3 10,2 68,2 3,0 50 - 0,0 348 1.011,5
13:33 12,9 7,2 10,1 68,0 3,1 41 - 0,0 348 1.011,4
13:32 12,9 7,2 10,2 68,0 3,5 26 - 0,0 348 1.011,4
13:31 13,0 7,4 10,3 68,6 3,8 4 - 0,0 717 1.011,4
13:30 13,0 7,6 10,4 69,5 3,7 66 - 0,0 875 1.011,4
13:29 13,0 7,5 10,3 69,4 3,1 83 - 0,0 875 1.011,4
13:28 12,9 7,5 10,3 69,0 2,4 11 - 0,0 875 1.011,5
13:27 12,9 7,5 10,3 69,0 3,2 35 - 0,0 838 1.011,5
13:26 12,9 7,5 10,3 69,0 3,7 11 - 0,0 793 1.011,5
13:25 12,9 7,5 10,3 69,0 3,8 63 - 0,0 793 1.011,5
13:24 12,9 7,5 10,3 69,0 3,6 3 - 0,0 834 1.011,4
13:23 12,9 7,5 10,3 69,0 3,3 25 - 0,0 838 1.011,4
13:22 12,9 7,6 10,4 69,9 3,0 27 - 0,0 838 1.011,4
13:21 12,9 7,7 10,4 70,0 3,0 22 - 0,0 824 1.011,5
13:20 12,9 7,6 10,4 70,0 3,7 350 - 0,0 668 1.011,5
13:19 12,9 7,6 10,3 70,0 4,0 28 - 0,0 575 1.011,5
13:18 12,9 7,6 10,3 70,0 3,6 5 - 0,0 801 1.011,5
13:17 12,8 7,6 10,3 70,0 2,7 28 - 0,0 826 1.011,4
13:16 12,8 7,6 10,3 70,0 2,5 7 - 0,0 826 1.011,5
13:15 12,8 7,6 10,3 70,0 3,0 14 - 0,0 803 1.011,5
13:14 12,8 7,5 10,3 70,0 3,4 345 - 0,0 784 1.011,5
13:13 12,8 7,5 10,2 70,0 3,4 20 - 0,0 416 1.011,5
13:12 12,8 7,5 10,2 70,0 3,1 345 - 0,0 326 1.011,5
13:11 12,8 7,5 10,2 70,0 3,4 61 - 0,0 378 1.011,5
13:10 12,8 7,5 10,2 70,0 4,0 14 - 0,0 378 1.011,5
13:09 12,7 7,5 10,2 70,4 4,2 18 - 0,0 385 1.011,5
13:08 12,7 7,7 10,3 71,0 4,0 9 - 0,0 634 1.011,5
13:07 12,7 7,6 10,2 71,0 4,0 355 - 0,0 765 1.011,6
13:06 12,6 7,7 10,2 71,6 3,5 355 - 0,0 765 1.011,6
13:05 12,5 7,5 10,1 71,3 3,4 58 - 0,0 758 1.011,5
13:04 12,4 7,4 10,0 71,0 3,5 41 - 0,0 746 1.011,6
13:03 12,4 7,3 10,0 71,0 3,3 49 - 0,0 503 1.011,6
13:02 12,4 7,3 10,0 71,0 3,0 67 - 0,0 295 1.011,6
13:01 12,4 7,3 10,0 71,0 3,0 107 - 0,0 295 1.011,6
13:00 12,4 7,3 10,0 71,0 2,7 59 - 0,0 294 1.011,7
 
12:59 12,4 7,3 10,0 71,0 3,1 37 - 0,0 276 1.011,7
12:58 12,4 7,4 10,0 71,0 3,7 32 - 0,0 259 1.011,7
12:57 12,4 7,4 10,0 71,0 4,1 36 - 0,0 263 1.011,8
12:56 12,4 7,4 10,0 71,0 4,0 34 - 0,0 265 1.011,7
12:55 12,4 7,4 10,0 71,0 3,8 55 - 0,0 322 1.011,7
12:54 12,4 7,3 10,0 71,0 3,5 24 - 0,0 878 1.011,7
12:53 12,4 7,5 10,0 71,8 3,5 35 - 0,0 904 1.011,8
12:52 12,3 7,5 10,0 72,0 3,3 40 - 0,0 896 1.011,8
12:51 12,3 7,5 10,0 72,0 2,6 70 - 0,0 896 1.011,8
12:50 12,3 7,4 10,0 72,0 2,2 337 - 0,0 454 1.011,8
12:49 12,2 7,3 9,9 71,5 2,8 43 - 0,0 264 1.011,9
12:48 12,2 7,4 9,9 71,9 3,8 49 - 0,0 270 1.011,9
12:47 12,3 7,4 10,0 72,0 3,5 62 - 0,0 296 1.011,9
12:46 12,3 7,4 10,0 72,0 2,0 16 - 0,0 281 1.011,8
12:45 12,3 7,5 10,0 72,3 2,3 313 - 0,0 281 1.011,9
12:44 12,2 7,6 10,0 73,0 3,1 12 - 0,0 281 1.011,9
12:43 12,2 7,6 10,0 73,0 3,9 9 - 0,0 281 1.011,9
12:42 12,2 7,5 10,0 73,0 3,6 12 - 0,0 402 1.011,9
12:41 12,1 7,5 10,0 73,0 2,7 1 - 0,0 884 1.011,8
12:40 12,1 7,5 9,9 73,0 2,3 336 - 0,0 884 1.011,9
12:39 12,1 7,5 9,9 73,0 2,8 335 - 0,0 884 1.012,0
12:38 12,1 7,5 10,0 73,4 2,9 333 - 0,0 469 1.012,0
12:37 12,1 7,6 10,0 73,5 3,0 48 - 0,0 326 1.012,0
12:36 12,1 7,5 9,9 73,0 3,1 9 - 0,0 244 1.011,9
12:35 12,1 7,7 10,0 73,9 2,9 355 - 0,0 241 1.011,9
12:34 12,1 7,7 10,0 74,0 2,9 74 - 0,0 230 1.012,0
12:33 12,1 7,7 10,0 74,0 3,0 7 - 0,0 227 1.012,0
12:32 12,1 7,7 10,0 74,0 3,1 355 - 0,0 248 1.011,9
12:31 12,1 7,6 10,0 74,0 2,5 23 - 0,0 270 1.011,9
12:30 12,0 7,6 10,0 74,0 2,4 32 - 0,0 292 1.011,9
12:29 12,0 7,6 9,9 74,0 3,1 41 - 0,0 481 1.011,9
12:28 12,0 7,6 9,9 74,2 3,3 39 - 0,0 831 1.011,9
12:27 12,0 7,7 10,0 75,0 2,9 90 - 0,0 831 1.012,0
12:26 11,9 7,7 10,0 75,5 2,7 76 - 0,0 831 1.012,0
12:25 11,8 7,6 9,9 75,4 2,7 94 - 0,0 831 1.012,0
12:24 11,7 7,4 9,7 75,0 3,0 76 - 0,0 821 1.012,0
12:23 11,6 7,6 9,8 75,9 2,9 104 - 0,0 783 1.012,0
12:22 11,5 7,5 9,7 75,8 2,9 73 - 0,0 783 1.012,0
12:21 11,5 7,2 9,5 75,0 2,6 93 - 0,0 804 1.012,0
12:20 11,4 7,2 9,5 75,0 2,3 103 - 0,0 827 1.012,0
12:19 11,4 7,1 9,4 75,0 1,9 95 - 0,0 202 1.012,0
12:18 11,3 7,1 9,4 75,0 2,2 62 - 0,0 169 1.012,0
12:17 11,3 7,1 9,4 75,0 2,8 80 - 0,0 169 1.012,0
12:16 11,4 7,2 9,5 75,0 3,7 64 - 0,0 169 1.012,0
12:15 11,4 7,2 9,5 75,0 3,9 64 - 0,0 169 1.012,0
12:14 11,4 7,3 9,6 75,5 3,7 39 - 0,0 169 1.012,0
12:13 11,5 7,4 9,6 76,0 3,4 67 - 0,0 169 1.012,0
12:12 11,5 7,5 9,7 76,0 3,0 42 - 0,0 172 1.012,0
12:11 11,5 7,4 9,6 76,0 3,0 56 - 0,0 189 1.012,0
12:10 11,5 7,5 9,7 76,0 3,2 30 - 0,0 209 1.012,0
12:09 11,5 7,4 9,6 76,0 3,7 39 - 0,0 308 1.012,0
12:08 11,5 7,6 9,7 76,6 3,3 62 - 0,0 348 1.012,0
12:07 11,5 7,6 9,8 77,0 3,0 58 - 0,0 258 1.012,0
12:06 11,5 7,6 9,8 77,0 2,9 36 - 0,0 238 1.012,0
12:05 11,5 7,6 9,8 77,0 3,2 26 - 0,0 232 1.011,9
12:04 11,5 7,6 9,8 77,0 3,3 65 - 0,0 252 1.011,9
12:03 11,5 7,7 9,8 77,4 3,5 45 - 0,0 291 1.011,9
12:02 11,4 7,8 9,8 78,0 3,6 34 - 0,0 342 1.011,9
12:01 11,4 7,6 9,7 77,3 3,4 54 - 0,0 346 1.011,9
12:00 11,3 7,6 9,7 77,9 3,1 6 - 0,0 347 1.012,0
 
11:59 11,3 7,5 9,6 77,2 3,0 43 - 0,0 356 1.012,0
11:58 11,3 7,6 9,7 78,0 3,4 21 - 0,0 344 1.012,0
11:57 11,3 7,6 9,7 78,0 4,1 13 - 0,0 323 1.012,0
11:56 11,3 7,6 9,7 78,0 4,0 20 - 0,0 309 1.011,9
11:55 11,3 7,6 9,6 78,0 3,9 72 - 0,0 308 1.012,0
11:54 11,2 7,5 9,6 78,0 3,6 56 - 0,0 341 1.012,0
11:53 11,2 7,5 9,6 78,0 2,7 73 - 0,0 328 1.011,9
11:52 11,2 7,5 9,5 78,0 2,4 39 - 0,0 282 1.011,9
11:51 11,2 7,5 9,5 78,0 3,2 35 - 0,0 258 1.011,9
11:50 11,2 7,6 9,6 78,6 3,8 51 - 0,0 248 1.012,0
11:49 11,2 7,7 9,7 79,0 3,6 46 - 0,0 245 1.012,0
11:48 11,2 7,7 9,6 79,0 2,9 24 - 0,0 252 1.012,0
11:47 11,2 7,7 9,6 79,0 3,0 14 - 0,0 254 1.012,0
11:46 11,1 7,6 9,6 79,0 3,3 7 - 0,0 252 1.011,9
11:45 11,1 7,6 9,6 79,0 3,3 33 - 0,0 251 1.011,9
11:44 11,1 7,6 9,5 79,0 3,2 50 - 0,0 259 1.012,0
11:43 11,1 7,6 9,5 79,0 3,3 36 - 0,0 270 1.012,0
11:42 11,0 7,6 9,5 79,0 3,3 75 - 0,0 271 1.012,0
11:41 11,0 7,5 9,5 79,0 3,3 62 - 0,0 272 1.012,1
11:40 11,0 7,5 9,4 79,0 3,0 58 - 0,0 271 1.012,0
11:39 10,9 7,4 9,4 79,0 2,3 40 - 0,0 271 1.012,0
11:38 10,9 7,4 9,4 79,0 1,7 116 - 0,0 273 1.012,0
11:37 10,8 7,4 9,3 79,0 1,8 41 - 0,0 270 1.012,0
11:36 10,8 7,4 9,3 79,0 2,6 73 - 0,0 272 1.012,0
11:35 10,8 7,4 9,3 79,0 3,4 49 - 0,0 269 1.012,0
11:34 10,8 7,4 9,3 79,0 4,1 67 - 0,0 273 1.012,1
11:33 10,8 7,3 9,3 79,0 3,6 39 - 0,0 290 1.012,1
11:32 10,8 7,3 9,3 79,0 3,5 355 - 0,0 245 1.012,1
11:31 10,8 7,4 9,3 79,8 3,4 28 - 0,0 238 1.012,1
11:30 10,7 7,4 9,3 80,0 3,1 23 - 0,0 246 1.012,1
11:29 10,7 7,4 9,3 80,0 2,8 36 - 0,0 262 1.012,1
11:28 10,7 7,4 9,3 80,0 3,2 5 - 0,0 279 1.012,1
11:27 10,7 7,4 9,3 80,0 3,5 36 - 0,0 295 1.012,2
11:26 10,7 7,4 9,2 80,0 3,5 55 - 0,0 282 1.012,2
11:25 10,7 7,5 9,3 81,0 3,6 53 - 0,0 281 1.012,1
11:24 10,7 7,6 9,4 81,0 4,3 67 - 0,0 299 1.012,1
11:23 10,7 7,6 9,4 81,3 4,5 47 - 0,0 314 1.012,2
11:22 10,7 7,7 9,5 82,0 3,9 73 - 0,0 295 1.012,1
11:21 10,7 7,7 9,5 82,0 3,1 55 - 0,0 289 1.012,0
11:20 10,7 7,7 9,4 82,0 2,8 50 - 0,0 267 1.012,1
11:19 10,6 7,8 9,5 82,9 2,8 7 - 0,0 270 1.012,1
11:18 10,6 7,8 9,5 83,0 2,5 64 - 0,0 278 1.012,1
11:17 10,6 7,8 9,4 83,0 2,6 53 - 0,0 298 1.012,1
11:16 10,5 7,8 9,4 83,0 2,8 60 - 0,0 311 1.012,0
11:15 10,5 7,7 9,4 83,0 2,9 62 - 0,0 386 1.012,0
11:14 10,4 7,7 9,3 83,0 2,6 39 - 0,0 369 1.012,1
11:13 10,4 7,6 9,3 83,0 2,8 32 - 0,0 271 1.012,1
11:12 10,4 7,6 9,3 83,0 3,2 64 - 0,0 258 1.012,1
11:11 10,4 7,6 9,3 83,0 3,3 91 - 0,0 229 1.012,0
11:10 10,4 7,6 9,3 83,0 2,8 43 - 0,0 219 1.012,0
11:09 10,3 7,6 9,2 83,0 3,0 28 - 0,0 232 1.012,0
11:08 10,3 7,7 9,3 83,8 3,3 53 - 0,0 274 1.012,0
11:07 10,3 7,7 9,3 84,0 3,9 68 - 0,0 236 1.012,0
11:06 10,3 7,7 9,3 84,0 3,9 61 - 0,0 246 1.012,0
11:05 10,3 7,7 9,3 84,0 3,7 37 - 0,0 264 1.012,0
11:04 10,3 7,7 9,2 84,0 3,3 54 - 0,0 258 1.012,0
11:03 10,2 7,7 9,2 84,0 2,9 37 - 0,0 255 1.012,0
11:02 10,2 7,6 9,2 84,0 3,1 73 - 0,0 256 1.012,0
11:01 10,2 7,8 9,3 84,9 3,5 56 - 0,0 250 1.012,0
11:00 10,2 7,8 9,3 85,0 3,6 74 - 0,0 232 1.012,0
 
10:59 10,2 7,8 9,3 85,0 3,7 66 - 0,0 215 1.012,0
10:58 10,2 7,8 9,3 85,0 4,0 43 - 0,0 208 1.011,9
10:57 10,2 7,8 9,3 85,0 4,2 51 - 0,0 211 1.011,9
10:56 10,2 7,8 9,3 85,0 4,3 41 - 0,0 220 1.012,0
10:55 10,2 7,8 9,3 85,0 3,9 39 - 0,0 240 1.011,9
10:54 10,2 7,8 9,3 85,0 3,3 44 - 0,0 236 1.011,9
10:53 10,2 7,8 9,2 85,0 3,1 47 - 0,0 219 1.011,9
10:52 10,2 7,7 9,2 85,0 3,6 41 - 0,0 220 1.011,9
10:51 10,1 7,7 9,2 85,0 4,0 43 - 0,0 222 1.012,1
10:50 10,1 7,7 9,2 85,0 3,9 59 - 0,0 203 1.012,0
10:49 10,1 7,7 9,2 85,0 3,7 25 - 0,0 198 1.011,9
10:48 10,1 7,7 9,2 85,0 4,1 20 - 0,0 199 1.011,9
10:47 10,1 7,7 9,1 85,0 4,5 53 - 0,0 206 1.012,0
10:46 10,1 7,7 9,2 85,5 4,6 35 - 0,0 215 1.012,0
10:45 10,1 7,8 9,2 86,0 4,4 49 - 0,0 224 1.012,0
10:44 10,1 7,8 9,2 86,0 4,2 41 - 0,0 219 1.012,1
10:43 10,1 7,8 9,2 86,0 4,4 53 - 0,0 205 1.012,1
10:42 10,1 7,8 9,2 86,0 4,6 59 - 0,0 189 1.012,1
10:41 10,1 7,8 9,2 86,0 4,1 53 - 0,0 180 1.012,1
10:40 10,0 7,8 9,2 86,0 3,2 63 - 0,0 179 1.012,1
10:39 10,0 7,8 9,2 86,0 3,3 15 - 0,0 170 1.012,1
10:38 10,0 7,8 9,2 86,0 3,7 38 - 0,0 176 1.012,1
10:37 10,0 7,8 9,2 86,0 4,0 61 - 0,0 182 1.012,2
10:36 10,0 7,8 9,2 86,0 3,9 35 - 0,0 189 1.012,1
10:35 10,0 7,8 9,2 86,0 3,8 54 - 0,0 193 1.012,1
10:34 10,0 7,7 9,1 86,0 3,7 66 - 0,0 191 1.012,1
10:33 10,0 7,7 9,1 86,0 3,4 55 - 0,0 195 1.012,1
10:32 9,9 7,7 9,1 86,0 3,3 63 - 0,0 196 1.012,1
10:31 9,9 7,7 9,1 86,0 3,7 55 - 0,0 196 1.012,1
10:30 9,9 7,7 9,1 86,0 4,1 41 - 0,0 193 1.012,1
10:29 9,9 7,6 9,1 86,0 4,2 58 - 0,0 193 1.012,1
10:28 9,9 7,6 9,1 86,0 4,0 68 - 0,0 191 1.012,1
10:27 9,9 7,6 9,1 86,0 3,9 49 - 0,0 177 1.012,1
10:26 9,9 7,6 9,0 86,0 4,1 68 - 0,0 168 1.012,2
10:25 9,9 7,7 9,1 86,2 4,5 49 - 0,0 169 1.012,2
10:24 9,9 7,8 9,1 87,0 4,2 70 - 0,0 173 1.012,1
10:23 9,8 7,8 9,1 87,0 4,1 59 - 0,0 181 1.012,2
10:22 9,8 7,8 9,1 87,0 4,2 44 - 0,0 184 1.012,2
10:21 9,8 7,8 9,1 87,0 4,3 55 - 0,0 171 1.012,1
10:20 9,8 7,7 9,0 87,0 4,1 47 - 0,0 174 1.012,1
10:19 9,7 7,7 9,0 87,0 4,1 34 - 0,0 182 1.012,1
10:18 9,7 7,6 9,0 87,0 4,3 40 - 0,0 193 1.012,3
10:17 9,7 7,6 9,0 87,0 4,3 56 - 0,0 209 1.012,3
10:16 9,7 7,6 9,0 87,0 4,4 81 - 0,0 210 1.012,3
10:15 9,7 7,6 9,0 87,0 4,3 64 - 0,0 196 1.012,2
10:14 9,7 7,6 8,9 87,0 4,0 50 - 0,0 183 1.012,2
10:13 9,7 7,6 8,9 87,0 3,7 93 - 0,0 182 1.012,2
10:12 9,6 7,5 8,9 87,0 3,7 64 - 0,0 186 1.012,2
10:11 9,6 7,5 8,9 87,0 4,1 34 - 0,0 178 1.012,3
10:10 9,6 7,5 8,9 87,0 4,4 62 - 0,0 187 1.012,3
10:09 9,6 7,5 8,9 87,0 4,6 60 - 0,0 193 1.012,3
10:08 9,6 7,5 8,8 87,1 4,8 50 - 0,0 200 1.012,3
10:07 9,6 7,6 8,9 87,8 4,9 47 - 0,0 193 1.012,4
10:06 9,6 7,5 8,8 87,0 4,7 54 - 0,0 192 1.012,4
10:05 9,5 7,4 8,7 87,0 3,8 45 - 0,0 192 1.012,3
10:04 9,5 7,4 8,8 87,0 3,4 26 - 0,0 191 1.012,4
10:03 9,5 7,5 8,8 87,8 3,8 39 - 0,0 183 1.012,4
10:02 9,5 7,6 8,8 88,0 4,5 45 - 0,0 173 1.012,3
10:01 9,4 7,5 8,8 88,0 4,5 33 - 0,0 175 1.012,4
10:00 9,5 7,5 8,8 88,0 4,4 36 - 0,0 179 1.012,4
 
09:59 9,4 7,5 8,8 88,0 4,1 44 - 0,0 189 1.012,3
09:58 9,4 7,5 8,8 88,0 3,7 61 - 0,0 186 1.012,3
09:57 9,4 7,5 8,8 88,0 3,5 63 - 0,0 171 1.012,3
09:56 9,4 7,5 8,7 88,0 3,1 57 - 0,0 165 1.012,3
09:55 9,4 7,5 8,7 88,0 3,1 41 - 0,0 154 1.012,3
09:54 9,4 7,5 8,7 88,0 3,3 65 - 0,0 136 1.012,3
09:53 9,4 7,5 8,7 88,0 3,5 72 - 0,0 140 1.012,3
09:52 9,4 7,5 8,7 88,0 3,2 56 - 0,0 141 1.012,3
09:51 9,4 7,5 8,7 88,0 3,0 39 - 0,0 125 1.012,4
09:50 9,3 7,4 8,7 88,0 3,3 25 - 0,0 120 1.012,4
09:49 9,4 7,5 8,7 88,0 3,5 57 - 0,0 117 1.012,4
09:48 9,3 7,4 8,7 88,0 3,4 59 - 0,0 114 1.012,3
09:47 9,3 7,4 8,7 88,0 3,2 72 - 0,0 113 1.012,4
09:46 9,3 7,4 8,7 88,0 3,1 54 - 0,0 111 1.012,4
09:45 9,3 7,4 8,7 88,0 3,4 61 - 0,0 108 1.012,4
09:44 9,3 7,4 8,7 88,0 3,7 64 - 0,0 106 1.012,4
09:43 9,3 7,4 8,6 88,0 3,3 72 - 0,0 104 1.012,4
09:42 9,3 7,4 8,6 88,0 2,2 74 - 0,0 101 1.012,4
09:41 9,3 7,4 8,6 88,0 1,5 76 - 0,0 103 1.012,4
09:40 9,2 7,3 8,6 88,0 1,8 49 - 0,0 100 1.012,5
09:39 9,2 7,3 8,6 88,0 2,2 52 - 0,0 99 1.012,5
09:38 9,2 7,3 8,6 88,0 2,4 46 - 0,0 98 1.012,4
09:37 9,2 7,3 8,6 88,0 2,6 86 - 0,0 98 1.012,4
09:36 9,2 7,3 8,6 88,0 2,9 82 - 0,0 94 1.012,5
09:35 9,2 7,3 8,6 88,0 3,2 51 - 0,0 92 1.012,5
09:34 9,2 7,3 8,6 88,0 3,3 47 - 0,0 104 1.012,4
09:33 9,2 7,3 8,6 88,0 3,2 43 - 0,0 116 1.012,4
09:32 9,2 7,3 8,5 88,0 3,0 64 - 0,0 118 1.012,4
09:31 9,2 7,3 8,5 88,0 2,9 36 - 0,0 109 1.012,4
09:30 9,2 7,3 8,5 88,0 3,1 39 - 0,0 101 1.012,5
09:29 9,2 7,3 8,5 88,0 3,2 40 - 0,0 100 1.012,5
09:28 9,2 7,3 8,5 88,0 3,4 61 - 0,0 100 1.012,5
09:27 9,2 7,3 8,5 88,0 3,5 57 - 0,0 102 1.012,5
09:26 9,2 7,3 8,5 88,0 3,7 65 - 0,0 109 1.012,5
09:25 9,2 7,3 8,5 88,0 3,6 62 - 0,0 113 1.012,5
09:24 9,2 7,3 8,5 88,0 3,5 47 - 0,0 119 1.012,5
09:23 9,2 7,3 8,5 88,0 3,9 81 - 0,0 123 1.012,5
09:22 9,2 7,3 8,6 88,0 4,1 55 - 0,0 125 1.012,5
09:21 9,2 7,3 8,6 88,0 3,8 98 - 0,0 122 1.012,5
09:20 9,2 7,3 8,6 88,0 3,4 78 - 0,0 113 1.012,5
09:19 9,2 7,4 8,6 88,6 3,4 48 - 0,0 104 1.012,5
09:18 9,3 7,5 8,7 89,0 3,6 42 - 0,0 104 1.012,6
09:17 9,3 7,5 8,7 89,0 3,6 60 - 0,0 104 1.012,5
09:16 9,2 7,5 8,7 89,0 3,1 58 - 0,0 106 1.012,5
09:15 9,2 7,5 8,6 89,0 2,6 49 - 0,0 100 1.012,5
09:14 9,2 7,5 8,6 89,0 2,6 49 - 0,0 97 1.012,6
09:13 9,2 7,5 8,6 89,0 2,3 64 - 0,0 93 1.012,6
09:12 9,2 7,4 8,6 89,0 2,0 51 - 0,0 84 1.012,6
09:11 9,2 7,4 8,6 89,0 1,7 59 - 0,0 75 1.012,6
09:10 9,2 7,3 8,5 88,2 1,8 83 - 0,0 73 1.012,6
09:09 9,2 7,3 8,5 88,2 2,0 65 - 0,0 76 1.012,6
09:08 9,2 7,5 8,7 89,0 2,4 47 - 0,0 72 1.012,7
09:07 9,2 7,5 8,6 89,0 2,6 45 - 0,0 64 1.012,6
09:06 9,2 7,5 8,7 89,0 2,5 76 - 0,0 57 1.012,6
09:05 9,2 7,4 8,6 89,0 2,3 42 - 0,0 56 1.012,6
09:04 9,2 7,4 8,6 89,0 2,0 91 - 0,0 57 1.012,6
09:03 9,2 7,4 8,6 89,0 2,0 79 - 0,0 60 1.012,6
09:02 9,2 7,4 8,6 89,0 2,0 55 - 0,0 63 1.012,6
09:01 9,1 7,4 8,6 89,0 1,8 59 - 0,0 57 1.012,6
09:00 9,1 7,3 8,5 88,4 1,8 92 - 0,0 49 1.012,7
 
08:59 9,1 7,2 8,4 88,0 2,3 78 - 0,0 47 1.012,7
08:58 9,1 7,2 8,4 88,0 2,7 90 - 0,0 48 1.012,7
08:57 9,1 7,2 8,4 88,0 2,4 91 - 0,0 51 1.012,7
08:56 9,1 7,2 8,4 88,0 2,4 71 - 0,0 52 1.012,7
08:55 9,1 7,2 8,5 88,0 3,1 41 - 0,0 49 1.012,7
08:54 9,1 7,2 8,5 88,0 3,8 53 - 0,0 49 1.012,6
08:53 9,2 7,3 8,5 88,0 3,5 47 - 0,0 46 1.012,7
08:52 9,2 7,3 8,5 88,0 2,4 55 - 0,0 45 1.012,7
08:51 9,2 7,3 8,5 88,0 1,3 81 - 0,0 44 1.012,7
08:50 9,2 7,3 8,5 88,0 1,2 78 - 0,0 43 1.012,7
08:49 9,2 7,3 8,5 88,0 1,8 50 - 0,0 44 1.012,7
08:48 9,2 7,3 8,5 88,0 2,6 53 - 0,0 47 1.012,7
08:47 9,2 7,3 8,5 88,0 3,1 53 - 0,0 47 1.012,7
08:46 9,2 7,3 8,5 88,0 3,5 69 - 0,0 46 1.012,7
08:45 9,2 7,3 8,6 88,0 3,4 76 - 0,0 44 1.012,7
08:44 9,2 7,3 8,6 88,0 2,7 64 - 0,0 39 1.012,7
08:43 9,2 7,3 8,5 88,0 2,3 84 - 0,0 35 1.012,7
08:42 9,2 7,3 8,6 88,0 2,3 66 - 0,0 35 1.012,7
08:41 9,2 7,3 8,5 88,0 2,5 83 - 0,0 36 1.012,7
08:40 9,2 7,3 8,5 88,0 2,3 47 - 0,0 35 1.012,6
08:39 9,2 7,3 8,5 88,0 2,3 55 - 0,0 35 1.012,6
08:38 9,2 7,3 8,5 88,0 2,3 87 - 0,0 37 1.012,7
08:37 9,2 7,3 8,5 88,0 2,1 95 - 0,0 37 1.012,6
08:36 9,2 7,3 8,5 88,0 2,4 29 - 0,0 35 1.012,6
08:35 9,2 7,3 8,5 88,0 2,8 67 - 0,0 34 1.012,7
08:34 9,2 7,3 8,5 88,0 3,0 92 - 0,0 36 1.012,6
08:33 9,2 7,3 8,5 88,0 3,0 65 - 0,0 36 1.012,6
08:32 9,2 7,3 8,5 88,0 3,4 39 - 0,0 34 1.012,7
08:31 9,2 7,3 8,5 88,0 2,8 53 - 0,0 33 1.012,6
08:30 9,2 7,3 8,5 88,0 2,2 108 - 0,0 33 1.012,6
08:29 9,2 7,3 8,5 88,0 2,2 74 - 0,0 32 1.012,6
08:28 9,1 7,2 8,5 88,0 2,3 56 - 0,0 35 1.012,5
08:27 9,1 7,2 8,5 88,0 2,2 73 - 0,0 37 1.012,5
08:26 9,2 7,3 8,5 88,0 2,4 91 - 0,0 34 1.012,5
08:25 9,1 7,2 8,5 88,0 2,9 82 - 0,0 32 1.012,5
08:24 9,1 7,2 8,5 88,0 3,0 101 - 0,0 30 1.012,6
08:23 9,1 7,2 8,4 88,0 2,8 76 - 0,0 32 1.012,6
08:22 9,1 7,2 8,5 88,0 2,9 54 - 0,0 36 1.012,6
08:21 9,1 7,2 8,5 88,0 3,4 47 - 0,0 36 1.012,6
08:20 9,1 7,2 8,5 88,0 3,6 84 - 0,0 31 1.012,5
08:19 9,2 7,3 8,5 88,0 3,6 36 - 0,0 30 1.012,5
08:18 9,2 7,3 8,5 88,0 3,4 72 - 0,0 33 1.012,6
08:17 9,2 7,3 8,5 88,0 2,7 67 - 0,0 33 1.012,6
08:16 9,1 7,2 8,5 88,0 2,0 44 - 0,0 33 1.012,5
08:15 9,1 7,2 8,4 88,0 2,2 44 - 0,0 30 1.012,5
08:14 9,1 7,2 8,4 88,0 2,9 49 - 0,0 28 1.012,5
08:13 9,1 7,2 8,4 88,0 3,2 68 - 0,0 28 1.012,5
08:12 9,1 7,2 8,4 88,0 2,8 52 - 0,0 31 1.012,5
08:11 9,1 7,2 8,4 88,0 2,3 38 - 0,0 32 1.012,5
08:10 9,1 7,2 8,4 88,0 2,5 62 - 0,0 31 1.012,5
08:09 9,1 7,2 8,4 88,0 3,2 76 - 0,0 30 1.012,5
08:08 9,1 7,2 8,4 88,0 3,8 66 - 0,0 28 1.012,5
08:07 9,1 7,2 8,4 88,0 4,2 56 - 0,0 29 1.012,5
08:06 9,1 7,2 8,4 88,0 4,2 68 - 0,0 33 1.012,5
08:05 9,1 7,2 8,5 88,0 3,5 51 - 0,0 32 1.012,5
08:04 9,1 7,2 8,5 88,0 2,8 30 - 0,0 30 1.012,4
08:03 9,1 7,2 8,5 88,0 2,5 53 - 0,0 30 1.012,5
08:02 9,1 7,2 8,4 88,0 2,6 52 - 0,0 28 1.012,4
08:01 9,1 7,2 8,4 88,0 2,6 70 - 0,0 29 1.012,4
08:00 9,1 7,2 8,4 88,0 2,5 58 - 0,0 32 1.012,4
 
07:59 9,1 7,2 8,4 88,0 2,4 63 - 0,0 32 1.012,4
07:58 9,1 7,2 8,4 88,0 2,7 36 - 0,0 29 1.012,4
07:57 9,1 7,2 8,4 88,0 3,4 45 - 0,0 27 1.012,4
07:56 9,1 7,2 8,4 88,0 3,7 57 - 0,0 26 1.012,4
07:55 9,1 7,2 8,4 88,0 2,8 59 - 0,0 28 1.012,4
07:54 9,1 7,2 8,4 88,0 1,9 68 - 0,0 27 1.012,4
07:53 9,1 7,2 8,4 88,0 1,8 59 - 0,0 26 1.012,4
07:52 9,0 7,1 8,4 88,0 2,1 61 - 0,0 24 1.012,4
07:51 9,0 7,1 8,4 88,0 2,3 22 - 0,0 23 1.012,4
07:50 9,0 7,1 8,4 88,0 2,5 61 - 0,0 23 1.012,4
07:49 9,0 7,1 8,4 88,0 3,3 53 - 0,0 23 1.012,4
07:48 9,0 7,1 8,4 88,0 4,2 61 - 0,0 22 1.012,3
07:47 9,1 7,2 8,4 88,0 4,2 64 - 0,0 20 1.012,3
07:46 9,1 7,2 8,4 88,0 3,7 99 - 0,0 19 1.012,3
07:45 9,1 7,2 8,4 88,0 3,6 59 - 0,0 19 1.012,3
07:44 9,1 7,2 8,4 88,0 4,0 66 - 0,0 19 1.012,3
07:43 9,1 7,2 8,4 88,0 3,9 43 - 0,0 19 1.012,3
07:42 9,1 7,2 8,4 88,0 3,7 59 - 0,0 19 1.012,3
07:41 9,1 7,2 8,4 88,0 3,5 49 - 0,0 19 1.012,3
07:40 9,1 7,2 8,4 88,0 3,0 60 - 0,0 19 1.012,4
07:39 9,1 7,2 8,4 88,0 2,5 28 - 0,0 18 1.012,3
07:38 9,1 7,2 8,4 88,0 2,5 47 - 0,0 18 1.012,3
07:37 9,1 7,2 8,4 88,0 2,6 45 - 0,0 18 1.012,3
07:36 9,1 7,2 8,4 88,0 2,8 55 - 0,0 18 1.012,3
07:35 9,1 7,2 8,4 88,0 3,3 49 - 0,0 18 1.012,3
07:33 9,1 7,2 8,4 88,0 4,0 70 - 0,0 18 1.012,2
07:32 9,1 7,2 8,4 88,0 4,1 48 - 0,0 18 1.012,2
07:31 9,1 7,2 8,4 88,0 3,5 70 - 0,0 18 1.012,3
07:30 9,1 7,2 8,4 88,0 3,0 73 - 0,0 16 1.012,2
07:29 9,1 7,2 8,4 88,0 2,7 70 - 0,0 16 1.012,2
07:28 9,1 7,2 8,4 88,0 2,6 40 - 0,0 16 1.012,2
07:27 9,1 7,2 8,4 88,0 2,5 73 - 0,0 16 1.012,2
07:26 9,1 7,2 8,4 88,0 2,5 83 - 0,0 16 1.012,2
07:25 9,1 7,2 8,4 88,0 3,0 44 - 0,0 16 1.012,2
07:24 9,1 7,2 8,4 88,0 3,8 72 - 0,0 14 1.012,2
07:23 9,1 7,2 8,4 88,0 3,9 59 - 0,0 14 1.012,2
07:22 9,1 7,2 8,4 88,0 3,5 58 - 0,0 14 1.012,2
07:21 9,1 7,2 8,4 88,0 3,0 83 - 0,0 14 1.012,2
07:20 9,1 7,2 8,4 88,0 2,7 55 - 0,0 14 1.012,2
07:19 9,1 7,2 8,4 88,0 2,9 43 - 0,0 14 1.012,2
07:18 9,1 7,2 8,4 88,0 3,4 74 - 0,0 13 1.012,2
07:17 9,1 7,2 8,4 88,0 3,5 79 - 0,0 12 1.012,1
07:16 9,1 7,2 8,4 88,0 3,3 64 - 0,0 12 1.012,1
07:15 9,1 7,2 8,4 88,0 2,8 49 - 0,0 12 1.012,2
07:14 9,1 7,2 8,4 88,0 2,5 66 - 0,0 12 1.012,2
07:13 9,1 7,2 8,4 88,0 2,8 64 - 0,0 12 1.012,2
07:12 9,1 7,2 8,5 88,0 3,8 55 - 0,0 12 1.012,2
07:11 9,2 7,2 8,5 88,0 4,1 54 - 0,0 12 1.012,2
07:10 9,2 7,3 8,5 88,0 3,6 56 - 0,0 12 1.012,1
07:09 9,2 7,2 8,5 88,0 3,0 68 - 0,0 12 1.012,2
07:08 9,2 7,3 8,5 88,0 2,7 60 - 0,0 11 1.012,2
07:07 9,2 7,3 8,5 88,0 2,8 48 - 0,0 11 1.012,2
07:06 9,2 7,3 8,5 88,0 2,5 60 - 0,0 11 1.012,2
07:05 9,2 7,3 8,5 88,0 2,4 91 - 0,0 11 1.012,2
07:04 9,2 7,3 8,5 88,0 2,4 53 - 0,0 10 1.012,2
07:03 9,2 7,3 8,5 88,0 2,6 49 - 0,0 9 1.012,2
07:02 9,2 7,3 8,5 88,0 2,6 72 - 0,0 9 1.012,2
07:01 9,2 7,3 8,5 88,0 2,8 49 - 0,0 8 1.012,2
07:00 9,2 7,3 8,5 88,0 2,8 65 - 0,0 8 1.012,2
 
06:59 9,2 7,3 8,5 88,0 2,7 70 - 0,0 8 1.012,2
06:58 9,2 7,3 8,5 88,0 2,7 24 - 0,0 7 1.012,3
06:57 9,2 7,3 8,5 88,0 2,8 47 - 0,0 7 1.012,2
06:56 9,2 7,3 8,5 88,0 2,6 34 - 0,0 7 1.012,2
06:55 9,2 7,3 8,5 88,0 2,5 61 - 0,0 7 1.012,3
06:54 9,2 7,3 8,5 88,0 2,3 44 - 0,0 7 1.012,2
06:53 9,2 7,3 8,6 88,0 2,2 53 - 0,0 7 1.012,2
06:52 9,2 7,3 8,6 88,0 2,2 76 - 0,0 7 1.012,2
06:51 9,2 7,3 8,6 88,0 2,4 80 - 0,0 5 1.012,2
06:50 9,2 7,3 8,6 88,0 2,6 59 - 0,0 5 1.012,2
06:49 9,2 7,3 8,6 88,0 2,6 56 - 0,0 5 1.012,2
06:48 9,2 7,3 8,6 88,0 2,5 85 - 0,0 5 1.012,2
06:47 9,2 7,3 8,6 88,0 2,8 80 - 0,0 5 1.012,3
06:46 9,2 7,3 8,6 88,0 2,9 48 - 0,0 5 1.012,3
06:45 9,2 7,3 8,6 88,0 2,6 56 - 0,0 5 1.012,3
06:44 9,2 7,3 8,6 88,0 2,2 55 - 0,0 5 1.012,3
06:43 9,2 7,3 8,6 88,0 2,2 57 - 0,0 5 1.012,3
06:42 9,2 7,3 8,6 88,0 2,2 41 - 0,0 5 1.012,3
06:41 9,2 7,3 8,5 87,6 1,9 66 - 0,0 5 1.012,3
06:40 9,2 7,2 8,5 87,0 2,2 104 - 0,0 5 1.012,3
06:39 9,3 7,2 8,5 87,0 2,6 55 - 0,0 4 1.012,3
06:38 9,3 7,3 8,6 87,8 2,6 62 - 0,0 0 1.012,3
06:37 9,3 7,3 8,6 87,9 2,3 55 - 0,0 0 1.012,3
06:36 9,2 7,2 8,5 87,3 2,6 38 - 0,0 0 1.012,3
06:35 9,3 7,4 8,6 88,0 2,9 59 - 0,0 0 1.012,3
06:34 9,3 7,4 8,6 88,0 3,0 67 - 0,0 0 1.012,2
06:33 9,3 7,4 8,6 88,0 3,0 64 - 0,0 0 1.012,2
06:32 9,3 7,4 8,6 88,0 2,6 68 - 0,0 0 1.012,2
06:31 9,3 7,4 8,6 88,0 2,1 49 - 0,0 0 1.012,2
06:30 9,3 7,3 8,6 87,8 1,7 98 - 0,0 0 1.012,2
06:29 9,3 7,3 8,6 87,4 1,9 57 - 0,0 0 1.012,2
06:28 9,3 7,4 8,6 88,0 2,3 75 - 0,0 0 1.012,2
06:27 9,3 7,4 8,6 88,0 2,6 72 - 0,0 0 1.012,2
06:26 9,3 7,4 8,6 88,0 2,7 58 - 0,0 0 1.012,2
06:25 9,2 7,3 8,6 87,7 2,5 58 - 0,0 0 1.012,2
06:24 9,2 7,2 8,5 87,0 2,2 58 - 0,0 0 1.012,2
06:23 9,3 7,2 8,5 87,0 2,1 21 - 0,0 0 1.012,2
06:22 9,2 7,2 8,5 87,0 2,3 49 - 0,0 0 1.012,2
06:21 9,2 7,2 8,5 87,0 3,1 82 - 0,0 0 1.012,2
06:20 9,3 7,2 8,5 87,0 3,3 82 - 0,0 0 1.012,2
06:19 9,3 7,2 8,5 87,0 3,1 55 - 0,0 0 1.012,3
06:18 9,3 7,2 8,5 87,0 2,8 68 - 0,0 0 1.012,3
06:17 9,3 7,3 8,6 87,0 3,0 75 - 0,0 0 1.012,2
06:16 9,3 7,3 8,6 87,0 3,1 51 - 0,0 0 1.012,2
06:15 9,3 7,3 8,6 87,0 3,4 54 - 0,0 0 1.012,2
06:14 9,4 7,3 8,6 87,0 3,5 61 - 0,0 0 1.012,2
06:13 9,4 7,3 8,6 87,0 2,9 68 - 0,0 0 1.012,2
06:12 9,4 7,4 8,7 87,5 1,8 78 - 0,0 0 1.012,3
06:11 9,4 7,4 8,7 87,4 1,1 86 - 0,0 0 1.012,3
06:10 9,3 7,3 8,6 87,0 1,0 74 - 0,0 0 1.012,3
06:09 9,3 7,3 8,6 87,0 1,1 36 - 0,0 0 1.012,3
06:08 9,4 7,3 8,6 87,0 1,3 79 - 0,0 0 1.012,3
06:07 9,3 7,3 8,6 87,0 1,5 53 - 0,0 0 1.012,3
06:06 9,3 7,3 8,6 87,0 1,8 27 - 0,0 0 1.012,3
06:05 9,3 7,3 8,6 87,0 2,2 93 - 0,0 0 1.012,3
06:04 9,3 7,3 8,6 87,0 2,8 47 - 0,0 0 1.012,3
06:03 9,4 7,3 8,6 87,0 2,9 72 - 0,0 0 1.012,3
06:02 9,4 7,3 8,6 87,0 2,6 51 - 0,0 0 1.012,3
06:01 9,3 7,3 8,6 87,0 2,2 80 - 0,0 0 1.012,3
06:00 9,3 7,3 8,6 87,0 1,8 78 - 0,0 0 1.012,3
 
05:59 9,3 7,3 8,6 87,0 1,6 76 - 0,0 0 1.012,3
05:58 9,3 7,3 8,6 87,0 1,7 43 - 0,0 0 1.012,3
05:57 9,3 7,3 8,6 87,0 1,9 84 - 0,0 0 1.012,4
05:56 9,4 7,3 8,6 87,0 2,0 41 - 0,0 0 1.012,4
05:55 9,4 7,3 8,6 87,0 2,1 66 - 0,0 0 1.012,3
05:54 9,4 7,3 8,6 87,0 2,5 66 - 0,0 0 1.012,3
05:53 9,4 7,3 8,6 87,0 2,9 63 - 0,0 0 1.012,3
05:52 9,4 7,3 8,6 87,0 2,9 42 - 0,0 0 1.012,3
05:51 9,4 7,3 8,6 87,0 2,3 41 - 0,0 0 1.012,3
05:50 9,4 7,3 8,6 87,0 1,7 84 - 0,0 0 1.012,3
05:49 9,4 7,3 8,6 87,0 1,7 59 - 0,0 0 1.012,3
05:48 9,4 7,3 8,6 87,0 1,8 82 - 0,0 0 1.012,3
05:47 9,4 7,3 8,6 87,0 2,3 70 - 0,0 0 1.012,3
05:46 9,4 7,3 8,6 87,0 2,9 53 - 0,0 0 1.012,3
05:45 9,4 7,3 8,6 87,0 3,1 47 - 0,0 0 1.012,4
05:44 9,4 7,4 8,7 87,0 3,2 50 - 0,0 0 1.012,3
05:43 9,4 7,4 8,7 87,0 3,4 66 - 0,0 0 1.012,3
05:42 9,4 7,4 8,7 87,0 3,5 41 - 0,0 0 1.012,3
05:41 9,5 7,4 8,7 87,0 3,6 80 - 0,0 0 1.012,3
05:40 9,5 7,4 8,7 87,0 3,8 91 - 0,0 0 1.012,2
05:39 9,5 7,4 8,8 87,0 3,2 55 - 0,0 0 1.012,3
05:38 9,5 7,4 8,7 87,0 2,4 43 - 0,0 0 1.012,2
05:37 9,5 7,4 8,7 87,0 1,7 78 - 0,0 0 1.012,2
05:36 9,5 7,4 8,7 87,0 1,8 76 - 0,0 0 1.012,2
05:35 9,5 7,4 8,7 87,0 2,0 61 - 0,0 0 1.012,2
05:34 9,5 7,4 8,7 87,0 2,3 59 - 0,0 0 1.012,2
05:33 9,5 7,4 8,7 87,0 2,5 57 - 0,0 0 1.012,1
05:32 9,5 7,4 8,8 87,0 3,0 87 - 0,0 0 1.012,1
05:31 9,5 7,5 8,8 87,0 3,4 74 - 0,0 0 1.012,1
05:30 9,5 7,5 8,8 87,0 3,3 60 - 0,0 0 1.012,1
05:29 9,6 7,5 8,8 87,0 2,7 65 - 0,0 0 1.012,1
05:28 9,6 7,5 8,8 87,0 2,2 53 - 0,0 0 1.012,1
05:27 9,6 7,5 8,8 87,0 2,3 38 - 0,0 0 1.012,2
05:26 9,6 7,5 8,8 87,0 2,2 91 - 0,0 0 1.012,2
05:25 9,6 7,5 8,8 87,0 2,1 90 - 0,0 0 1.012,2
05:24 9,6 7,5 8,8 87,0 1,7 52 - 0,0 0 1.012,2
05:23 9,5 7,5 8,8 87,0 1,4 74 - 0,0 0 1.012,2
05:22 9,5 7,5 8,8 87,0 1,1 77 - 0,0 0 1.012,2
05:21 9,5 7,4 8,8 87,0 1,7 38 - 0,0 0 1.012,2
05:20 9,5 7,5 8,8 87,0 1,9 59 - 0,0 0 1.012,2
05:19 9,5 7,5 8,8 87,0 1,8 89 - 0,0 0 1.012,2
05:18 9,5 7,4 8,8 87,0 1,8 70 - 0,0 0 1.012,2
05:17 9,5 7,4 8,8 87,0 2,2 84 - 0,0 0 1.012,2
05:16 9,5 7,4 8,8 87,0 2,7 59 - 0,0 0 1.012,2
05:15 9,5 7,4 8,8 87,0 3,6 55 - 0,0 0 1.012,2
05:14 9,5 7,5 8,8 87,0 4,3 61 - 0,0 0 1.012,2
05:13 9,5 7,4 8,8 87,0 4,1 53 - 0,0 0 1.012,2
05:12 9,5 7,5 8,8 87,0 3,7 68 - 0,0 0 1.012,2
05:11 9,5 7,5 8,8 87,0 3,2 68 - 0,0 0 1.012,2
05:10 9,5 7,5 8,8 87,0 2,7 41 - 0,0 0 1.012,2
05:09 9,5 7,5 8,8 87,0 2,5 61 - 0,0 0 1.012,2
05:08 9,5 7,4 8,8 87,0 2,6 50 - 0,0 0 1.012,2
05:07 9,5 7,4 8,8 87,0 2,9 43 - 0,0 0 1.012,2
05:06 9,5 7,4 8,7 87,0 2,8 58 - 0,0 0 1.012,1
05:05 9,5 7,4 8,7 87,0 2,6 55 - 0,0 0 1.012,2
05:04 9,5 7,4 8,7 87,0 2,2 59 - 0,0 0 1.012,2
05:03 9,5 7,4 8,7 87,0 2,3 68 - 0,0 0 1.012,2
05:02 9,5 7,4 8,7 87,0 2,9 59 - 0,0 0 1.012,2
05:01 9,5 7,4 8,7 87,0 3,4 59 - 0,0 0 1.012,2
05:00 9,5 7,4 8,7 87,0 3,2 49 - 0,0 0 1.012,2
 
04:59 9,5 7,4 8,8 87,0 2,9 48 - 0,0 0 1.012,2
04:58 9,5 7,4 8,8 87,0 2,8 55 - 0,0 0 1.012,2
04:57 9,5 7,4 8,7 87,0 3,0 43 - 0,0 0 1.012,2
04:56 9,5 7,4 8,8 87,0 3,2 67 - 0,0 0 1.012,2
04:55 9,5 7,4 8,7 87,0 3,4 50 - 0,0 0 1.012,2
04:54 9,5 7,5 8,8 87,0 3,3 70 - 0,0 0 1.012,2
04:53 9,5 7,5 8,8 87,0 3,1 51 - 0,0 0 1.012,2
04:52 9,5 7,5 8,8 87,0 3,3 63 - 0,0 0 1.012,2
04:51 9,5 7,5 8,8 87,0 3,5 70 - 0,0 0 1.012,2
04:50 9,5 7,5 8,8 87,0 3,7 66 - 0,0 0 1.012,2
04:49 9,5 7,5 8,8 87,0 3,6 49 - 0,0 0 1.012,2
04:48 9,6 7,5 8,8 87,0 3,2 95 - 0,0 0 1.012,2
04:47 9,6 7,5 8,8 87,0 2,4 44 - 0,0 0 1.012,3
04:46 9,5 7,5 8,8 87,0 2,6 43 - 0,0 0 1.012,3
04:45 9,6 7,5 8,8 87,0 3,0 56 - 0,0 0 1.012,3
04:44 9,6 7,5 8,8 87,0 3,1 45 - 0,0 0 1.012,3
04:43 9,6 7,5 8,8 87,0 2,8 86 - 0,0 0 1.012,3
04:42 9,6 7,5 8,8 87,0 2,8 60 - 0,0 0 1.012,3
04:41 9,6 7,5 8,9 87,0 3,2 69 - 0,0 0 1.012,4
04:40 9,6 7,5 8,8 87,0 3,1 83 - 0,0 0 1.012,4
04:39 9,6 7,5 8,8 87,0 2,4 47 - 0,0 0 1.012,3
04:38 9,6 7,5 8,8 87,0 2,0 86 - 0,0 0 1.012,4
04:37 9,6 7,5 8,8 87,0 2,2 93 - 0,0 0 1.012,4
04:36 9,6 7,5 8,8 87,0 2,1 63 - 0,0 0 1.012,4
04:35 9,6 7,5 8,8 87,0 2,3 66 - 0,0 0 1.012,4
04:34 9,6 7,5 8,8 87,0 2,6 64 - 0,0 0 1.012,5
04:33 9,6 7,5 8,8 87,0 3,0 86 - 0,0 0 1.012,5
04:32 9,6 7,5 8,8 87,0 3,1 60 - 0,0 0 1.012,4
04:31 9,6 7,5 8,8 87,0 3,1 95 - 0,0 0 1.012,4
04:30 9,6 7,5 8,8 87,0 2,4 55 - 0,0 0 1.012,4
04:29 9,6 7,5 8,8 87,0 3,1 65 - 0,0 0 1.012,4
04:28 9,6 7,5 8,9 87,0 3,4 49 - 0,0 0 1.012,4
04:27 9,6 7,5 8,9 87,0 3,9 73 - 0,0 0 1.012,4
04:26 9,6 7,5 8,9 87,0 4,3 64 - 0,0 0 1.012,4
04:25 9,6 7,5 8,9 87,0 2,9 66 - 0,0 0 1.012,4
04:24 9,6 7,5 8,9 87,0 2,5 45 - 0,0 0 1.012,4
04:23 9,6 7,5 8,9 87,0 4,0 48 - 0,0 0 1.012,4
04:22 9,6 7,6 8,9 87,0 3,4 51 - 0,0 0 1.012,5
04:21 9,7 7,6 8,9 87,0 3,3 71 - 0,0 0 1.012,5
04:20 9,7 7,6 8,9 87,0 2,5 80 - 0,0 0 1.012,4
04:19 9,7 7,6 8,9 87,0 2,3 96 - 0,0 0 1.012,5
04:18 9,7 7,6 8,9 87,0 3,4 66 - 0,0 0 1.012,5
04:17 9,7 7,6 8,9 87,0 4,1 52 - 0,0 0 1.012,5